                ,  0.300,  0.400,  0.500,  0.600,  0.700,  0.800,  0.900,  1.000,  1.100,  1.200,  1.300,  1.400,  1.500,  1.600,  1.700,  1.800,  1.900,  2.000,  2.100,  2.200,  2.300,  2.400,  2.500,  2.600,  2.700,  2.800,  2.900,  3.000,  3.100,  3.200,  3.300,  3.400,  3.500,  3.600,  3.700,  3.800,  3.900,  4.000,  4.100,  4.200,  4.300,  4.400,  4.500,  4.600,  4.700,  4.800,  4.900,  5.000,  5.100,  5.200,  5.300,  5.400,  5.500,  5.600,  5.700,  5.800,  5.900,  6.000
2001/03/11 00:00,   -0.0,   -0.1,   -0.1,   -0.0,   -0.5,   -0.3,    0.1,    0.1,    0.0,    0.5,    0.2,    0.1,  999.0,  999.0,  999.0,    0.1,  999.0,  999.0,  999.0,  999.0,  999.0,  999.0,  999.0,   -0.0,   -0.1,   -0.1,  999.0,  999.0,  999.0,  999.0,  999.0,  999.0,  999.0,  999.0,  999.0,  999.0,  999.0,  999.0,  999.0,  999.0,  999.0,  999.0,  999.0,  999.0,  999.0,  999.0,  999.0,  999.0,  999.0,  999.0,  999.0,  999.0,  999.0,  999.0,  999.0,  999.0,  999.0,  999.0
2001/03/11 00:10,    0.0,   -0.1,   -0.1,   -0.2,   -0.2,    0.2,    0.1,    0.1,    0.2,    0.3,  999.0,    0.9,    0.2,   -0.1,    0.1,    0.3,    0.2,  999.0,  999.0,  999.0,  999.0,  999.0,    0.2,   -0.1,    0.1,    0.0,  999.0,  999.0,  999.0,   -0.0,   -0.1,  999.0,  999.0,  999.0,  999.0,  999.0,  999.0,  999.0,  999.0,  999.0,  999.0,  999.0,  999.0,  999.0,  999.0,  999.0,  999.0,  999.0,  999.0,  999.0,  999.0,  999.0,  999.0,  999.0,  999.0,  999.0,  999.0,  999.0
2001/03/11 00:20,    0.2,   -0.1,   -0.6,   -0.1,   -0.6,   -0.2,    0.1,    0.3,    0.1,   -0.1,    0.1,    0.3,  999.0,    0.1,    0.5,  999.0,    0.1,    0.1,  999.0,  999.0,   -0.1,  999.0,    0.0,  999.0,    0.0,    0.0,  999.0,  999.0,  999.0,  999.0,  999.0,  999.0,  999.0,    0.1,  999.0,  999.0,  999.0,  999.0,  999.0,  999.0,  999.0,  999.0,  999.0,    0.1,  999.0,  999.0,    0.1,    0.1,  999.0,    0.1,  999.0,    0.1,  999.0,  999.0,    0.2,  999.0,    0.1,  999.0
2001/03/11 00:30,   -0.1,    1.1,    0.8,    0.3,   -0.4,   -0.3,   -0.4,    0.2,    0.4,    0.1,    0.0,    0.4,    0.2,    0.1,    0.4,  999.0,  999.0,    0.2,  999.0,  999.0,  999.0,  999.0,   -0.1,    0.0,    0.1,  999.0,  999.0,  999.0,  999.0,  999.0,  999.0,  999.0,  999.0,  999.0,  999.0,  999.0,  999.0,  999.0,  999.0,  999.0,  999.0,  999.0,  999.0,  999.0,  999.0,  999.0,  999.0,  999.0,  999.0,  999.0,  999.0,  999.0,    0.1,  999.0,  999.0,  999.0,  999.0,  999.0
2001/03/11 00:40,    0.2,   -0.4,   -0.1,    0.7,    1.0,    0.4,   -0.4,    0.1,   -0.0,    0.2,    0.2,    0.1,   -0.0,  999.0,    0.1,  999.0,  999.0,    0.1,    0.1,   -0.1,  999.0,  999.0,  999.0,  999.0,   -0.0,  999.0,  999.0,  999.0,  999.0,  999.0,  999.0,  999.0,    0.0,  999.0,  999.0,  999.0,  999.0,  999.0,  999.0,  999.0,  999.0,  999.0,  999.0,  999.0,  999.0,  999.0,  999.0,  999.0,  999.0,  999.0,  999.0,  999.0,  999.0,  999.0,  999.0,  999.0,  999.0,  999.0
2001/03/11 00:50,    0.0,    0.1,    0.1,   -0.3,   -0.0,    0.4,    0.5,    0.4,    0.2,    0.2,    0.2,    0.2,    0.4,    0.3,    0.1,    0.2,    0.1,    0.1,    0.2,  999.0,  999.0,  999.0,  999.0,   -0.1,    0.1,    0.1,  999.0,  999.0,  999.0,  999.0,  999.0,    0.2,  999.0,  999.0,    0.2,  999.0,  999.0,    0.0,  999.0,    0.2,  999.0,  999.0,  999.0,  999.0,  999.0,    0.1,  999.0,    0.2,  999.0,  999.0,  999.0,  999.0,  999.0,    0.2,  999.0,  999.0,  999.0,  999.0
2001/03/11 01:00,    0.5,    1.0,    0.1,  999.0,    1.1,    0.5,    0.6,    0.5,    0.2,    0.9,   -0.0,   -0.1,  999.0,  999.0,    0.0,  999.0,    0.0,   -0.1,    0.0,    0.0,  999.0,   -0.1,  999.0,    0.1,  999.0,  999.0,  999.0,  999.0,  999.0,  999.0,  999.0,  999.0,  999.0,  999.0,  999.0,  999.0,  999.0,  999.0,  999.0,  999.0,  999.0,  999.0,  999.0,  999.0,    0.2,  999.0,    0.2,  999.0,  999.0,  999.0,  999.0,  999.0,  999.0,  999.0,  999.0,  999.0,    0.2,  999.0
2001/03/11 01:10,    0.1,   -0.7,    0.1,    1.0,   -0.2,    0.9,    0.4,    0.3,    0.1,    0.3,    0.1,    0.1,    0.1,  999.0,    0.3,    0.1,    0.0,    0.2,    0.2,    0.1,  999.0,  999.0,  999.0,  999.0,   -0.0,  999.0,  999.0,  999.0,  999.0,  999.0,  999.0,  999.0,  999.0,  999.0,  999.0,   -0.0,  999.0,  999.0,  999.0,  999.0,  999.0,  999.0,  999.0,  999.0,  999.0,  999.0,  999.0,  999.0,  999.0,  999.0,  999.0,  999.0,  999.0,  999.0,  999.0,  999.0,  999.0,  999.0
2001/03/11 01:20,   -0.8,   -0.4,   -0.4,   -0.3,    0.8,    0.7,   -0.1,   -0.3,    0.4,   -0.1,   -0.1,    0.1,    0.0,    0.1,    0.2,    0.2,    0.1,    0.0,    0.1,    0.1,  999.0,  999.0,  999.0,  999.0,   -0.0,  999.0,    0.2,  999.0,  999.0,  999.0,  999.0,  999.0,  999.0,  999.0,  999.0,  999.0,  999.0,   -0.0,  999.0,  999.0,  999.0,  999.0,  999.0,  999.0,  999.0,  999.0,  999.0,  999.0,  999.0,  999.0,  999.0,  999.0,  999.0,  999.0,  999.0,  999.0,  999.0,  999.0
2001/03/11 01:30,   -0.4,    0.2,   -0.0,   -0.4,    0.4,    0.1,    0.3,    0.1,    0.1,   -0.1,    0.2,    0.0,    0.1,    0.1,    0.1,    0.2,   -0.1,    0.1,    0.1,   -0.1,  999.0,    0.0,  999.0,  999.0,  999.0,  999.0,  999.0,  999.0,  999.0,  999.0,  999.0,  999.0,  999.0,  999.0,  999.0,  999.0,  999.0,  999.0,  999.0,  999.0,    0.1,  999.0,  999.0,  999.0,  999.0,  999.0,  999.0,  999.0,  999.0,  999.0,  999.0,  999.0,  999.0,  999.0,  999.0,  999.0,  999.0,  999.0
2001/03/11 01:40,    0.8,    0.4,    0.3,    0.0,   -0.1,   -1.0,   -0.3,    0.2,    0.3,    0.1,    0.2,    0.2,    0.0,    0.1,   -0.0,   -0.3,   -0.3,    0.4,   -0.0,   -0.1,   -0.1,  999.0,  999.0,  999.0,  999.0,   -0.1,  999.0,  999.0,  999.0,  999.0,  999.0,  999.0,  999.0,  999.0,  999.0,  999.0,  999.0,  999.0,  999.0,  999.0,  999.0,  999.0,  999.0,  999.0,  999.0,  999.0,  999.0,  999.0,  999.0,  999.0,  999.0,  999.0,  999.0,  999.0,  999.0,  999.0,  999.0,  999.0
2001/03/11 01:50,   -0.1,   -0.6,   -0.4,    0.6,    0.1,   -0.1,    0.2,   -0.0,    0.0,    0.2,    0.2,   -0.0,    0.1,   -0.1,  999.0,  999.0,  999.0,    0.1,   -0.1,    0.2,   -0.1,  999.0,  999.0,  999.0,   -0.1,    0.0,  999.0,  999.0,  999.0,  999.0,  999.0,  999.0,  999.0,  999.0,  999.0,  999.0,  999.0,  999.0,  999.0,  999.0,  999.0,  999.0,  999.0,  999.0,  999.0,  999.0,  999.0,  999.0,  999.0,  999.0,  999.0,  999.0,  999.0,  999.0,  999.0,  999.0,  999.0,  999.0
2001/03/11 02:00,    0.1,   -0.2,    0.4,    0.3,  999.0,   -0.0,   -0.1,    0.0,   -0.2,    0.2,    0.2,    0.2,    0.1,  999.0,    0.3,    0.3,  999.0,    0.0,   -0.1,    0.2,    0.0,  999.0,  999.0,  999.0,  999.0,    0.1,  999.0,  999.0,  999.0,  999.0,  999.0,  999.0,  999.0,  999.0,  999.0,  999.0,  999.0,  999.0,  999.0,  999.0,  999.0,  999.0,  999.0,  999.0,  999.0,  999.0,  999.0,  999.0,  999.0,  999.0,  999.0,  999.0,  999.0,  999.0,  999.0,  999.0,  999.0,  999.0
2001/03/11 02:10,    0.2,    0.3,   -0.0,    0.0,    0.9,    0.5,   -0.2,    0.2,    0.1,    0.3,    0.2,    0.2,  999.0,  999.0,  999.0,  999.0,  999.0,  999.0,    0.1,  999.0,    0.1,    0.1,  999.0,  999.0,    0.2,    0.1,  999.0,  999.0,  999.0,  999.0,  999.0,  999.0,  999.0,  999.0,  999.0,  999.0,  999.0,  999.0,  999.0,  999.0,  999.0,  999.0,  999.0,  999.0,  999.0,  999.0,  999.0,  999.0,  999.0,  999.0,  999.0,  999.0,  999.0,  999.0,  999.0,  999.0,  999.0,  999.0
2001/03/11 02:20,    0.1,    0.6,  999.0,    0.2,    0.0,    0.2,    0.0,    0.2,    0.5,    0.3,    0.2,    0.1,    0.1,  999.0,  999.0,   -0.1,  999.0,  999.0,  999.0,  999.0,  999.0,   -0.1,  999.0,  999.0,  999.0,    0.1,  999.0,  999.0,  999.0,  999.0,  999.0,  999.0,  999.0,  999.0,  999.0,  999.0,  999.0,  999.0,  999.0,  999.0,  999.0,  999.0,  999.0,  999.0,  999.0,  999.0,  999.0,  999.0,  999.0,  999.0,  999.0,  999.0,  999.0,  999.0,  999.0,  999.0,  999.0,  999.0
2001/03/11 02:30,   -0.6,   -0.1,   -0.4,   -1.7,   -0.3,    0.1,   -0.0,   -0.0,   -0.0,    0.2,   -0.1,    0.2,    0.1,  999.0,  999.0,  999.0,    0.0,   -0.2,  999.0,  999.0,  999.0,  999.0,    0.1,    0.1,    0.2,  999.0,  999.0,  999.0,    0.4,  999.0,   -0.2,  999.0,  999.0,  999.0,  999.0,  999.0,   -0.5,  999.0,   -0.2,  999.0,  999.0,  999.0,   -0.2,  999.0,  999.0,  999.0,  999.0,  999.0,  999.0,  999.0,  999.0,  999.0,  999.0,  999.0,  999.0,  999.0,  999.0,  999.0
2001/03/11 02:40,   -0.0,   -0.4,    0.1,    0.0,    1.0,    0.9,    0.3,    0.3,    0.1,    0.2,    0.2,    0.1,    0.2,    0.3,    0.1,  999.0,  999.0,  999.0,  999.0,  999.0,  999.0,   -0.0,  999.0,    0.2,  999.0,  999.0,  999.0,  999.0,  999.0,  999.0,    0.2,  999.0,  999.0,  999.0,   -0.1,  999.0,  999.0,  999.0,  999.0,  999.0,  999.0,  999.0,  999.0,  999.0,  999.0,  999.0,  999.0,  999.0,  999.0,  999.0,  999.0,  999.0,  999.0,  999.0,  999.0,  999.0,  999.0,  999.0
2001/03/11 02:50,   -0.2,    0.6,    0.0,    0.3,    1.2,  999.0,   -0.3,    0.1,    0.0,   -0.0,    0.1,   -0.1,    0.1,    0.1,    0.2,  999.0,    0.1,  999.0,    0.1,   -0.0,  999.0,  999.0,  999.0,  999.0,    0.1,   -0.0,   -0.0,   -0.4,  999.0,  999.0,  999.0,  999.0,  999.0,  999.0,  999.0,  999.0,  999.0,  999.0,  999.0,  999.0,  999.0,  999.0,  999.0,  999.0,  999.0,  999.0,  999.0,  999.0,  999.0,  999.0,  999.0,  999.0,  999.0,  999.0,  999.0,  999.0,  999.0,  999.0
2001/03/11 03:00,    0.1,    0.2,    0.3,   -0.1,    0.4,   -0.2,   -0.3,    0.4,    0.2,    0.2,    0.3,    0.3,    0.3,    0.5,  999.0,  999.0,  999.0,  999.0,  999.0,  999.0,  999.0,    0.2,  999.0,  999.0,  999.0,    0.1,    0.0,    0.1,  999.0,  999.0,    0.0,  999.0,  999.0,  999.0,  999.0,  999.0,  999.0,  999.0,  999.0,  999.0,  999.0,  999.0,  999.0,  999.0,  999.0,  999.0,  999.0,  999.0,  999.0,  999.0,  999.0,  999.0,  999.0,  999.0,  999.0,  999.0,  999.0,  999.0
2001/03/11 03:10,    0.5,    0.1,   -0.2,    0.4,    0.8,    0.5,   -0.0,    0.0,    0.0,    0.2,    0.2,    0.1,    0.1,  999.0,  999.0,  999.0,  999.0,  999.0,   -0.0,  999.0,  999.0,  999.0,    0.1,  999.0,   -0.1,    0.0,   -0.0,    0.1,    0.1,  999.0,  999.0,  999.0,  999.0,  999.0,  999.0,  999.0,  999.0,  999.0,  999.0,  999.0,  999.0,  999.0,  999.0,  999.0,  999.0,  999.0,  999.0,  999.0,  999.0,  999.0,  999.0,  999.0,  999.0,  999.0,  999.0,  999.0,  999.0,  999.0
2001/03/11 03:20,    0.3,  999.0,   -0.0,    0.4,   -0.2,    0.1,   -0.3,   -0.2,    0.0,    0.1,    0.1,    0.1,    0.0,    0.2,   -0.2,   -0.1,  999.0,  999.0,  999.0,  999.0,   -0.1,    0.1,  999.0,  999.0,    0.0,    0.0,    0.0,   -0.1,    0.0,  999.0,  999.0,  999.0,   -0.3,  999.0,    0.0,  999.0,  999.0,  999.0,    0.1,  999.0,  999.0,  999.0,  999.0,  999.0,  999.0,  999.0,  999.0,  999.0,  999.0,  999.0,  999.0,  999.0,  999.0,  999.0,  999.0,  999.0,  999.0,  999.0
2001/03/11 03:30,    0.3,    0.2,    0.0,    0.2,    0.1,    0.0,    0.1,   -0.2,   -0.0,    0.3,    0.1,    0.1,    0.1,  999.0,    0.1,  999.0,  999.0,  999.0,  999.0,  999.0,   -0.0,    0.0,    0.1,  999.0,    0.0,    0.2,    0.2,    0.1,    0.1,  999.0,  999.0,  999.0,  999.0,  999.0,  999.0,  999.0,  999.0,  999.0,  999.0,  999.0,  999.0,  999.0,  999.0,  999.0,  999.0,  999.0,  999.0,  999.0,  999.0,  999.0,  999.0,  999.0,  999.0,  999.0,  999.0,    0.1,  999.0,  999.0
2001/03/11 03:40,   -0.2,    0.2,    0.6,    0.1,   -0.4,    0.0,    0.1,    0.1,    0.1,    0.0,    0.1,    0.3,    0.1,    0.1,    0.1,    0.0,  999.0,  999.0,  999.0,  999.0,  999.0,  999.0,  999.0,  999.0,   -0.0,    0.0,    0.0,    0.1,  999.0,  999.0,  999.0,  999.0,  999.0,  999.0,   -0.1,  999.0,  999.0,  999.0,  999.0,  999.0,  999.0,  999.0,  999.0,  999.0,  999.0,  999.0,  999.0,  999.0,  999.0,  999.0,  999.0,    0.1,  999.0,    0.1,  999.0,    0.1,  999.0,  999.0
2001/03/11 03:50,    0.2,    0.4,    0.3,    0.3,   -0.1,    0.2,    0.2,   -0.2,    0.2,    0.2,    0.2,    0.3,    0.2,  999.0,  999.0,  999.0,  999.0,  999.0,    0.0,  999.0,  999.0,    0.1,  999.0,  999.0,   -0.4,  999.0,    0.2,    0.1,    0.2,  999.0,  999.0,  999.0,  999.0,  999.0,  999.0,  999.0,  999.0,  999.0,  999.0,  999.0,  999.0,  999.0,  999.0,  999.0,  999.0,  999.0,  999.0,  999.0,  999.0,  999.0,  999.0,  999.0,  999.0,  999.0,  999.0,  999.0,  999.0,  999.0
2001/03/11 04:00,    0.6,    0.6,    0.3,  999.0,    0.5,    0.4,    0.4,    0.3,    0.1,    0.2,    0.2,    0.2,    0.2,    0.1,  999.0,  999.0,  999.0,  999.0,  999.0,  999.0,    0.1,    0.0,  999.0,  999.0,  999.0,  999.0,   -0.1,    0.0,  999.0,  999.0,  999.0,  999.0,  999.0,  999.0,  999.0,  999.0,  999.0,  999.0,  999.0,    0.2,  999.0,  999.0,  999.0,  999.0,  999.0,  999.0,  999.0,  999.0,  999.0,  999.0,  999.0,  999.0,  999.0,  999.0,  999.0,  999.0,  999.0,  999.0
2001/03/11 04:10,  999.0,  999.0,    0.5,    0.1,    0.7,    0.5,    0.3,    0.3,    0.2,   -0.0,   -0.0,    0.1,    0.2,    0.2,    0.1,  999.0,  999.0,  999.0,  999.0,  999.0,   -0.1,    0.1,    0.0,  999.0,  999.0,  999.0,    0.1,    0.2,  999.0,  999.0,  999.0,  999.0,  999.0,   -0.2,  999.0,   -0.6,  999.0,  999.0,  999.0,  999.0,  999.0,  999.0,  999.0,  999.0,  999.0,  999.0,  999.0,  999.0,  999.0,  999.0,  999.0,  999.0,  999.0,    0.1,  999.0,  999.0,  999.0,  999.0
2001/03/11 04:20,   -0.4,    0.2,    0.0,    0.2,    0.6,    0.7,   -0.0,    0.2,    0.1,    0.2,    0.1,    0.2,    0.2,    0.3,    0.2,  999.0,    0.1,  999.0,   -0.1,  999.0,  999.0,  999.0,  999.0,  999.0,  999.0,  999.0,    0.0,    0.1,  999.0,  999.0,  999.0,  999.0,  999.0,  999.0,  999.0,  999.0,  999.0,  999.0,  999.0,  999.0,  999.0,  999.0,  999.0,  999.0,  999.0,  999.0,  999.0,  999.0,  999.0,  999.0,  999.0,  999.0,  999.0,  999.0,  999.0,  999.0,  999.0,  999.0
2001/03/11 04:30,   -0.1,    0.5,    0.2,    0.5,    0.1,    0.1,    0.3,    0.1,   -0.2,    0.1,    0.2,    0.1,    0.2,    0.2,    0.2,  999.0,   -0.1,   -0.1,  999.0,    0.1,    0.0,  999.0,    0.2,  999.0,  999.0,    0.1,  999.0,    0.1,    0.1,  999.0,  999.0,  999.0,  999.0,  999.0,  999.0,  999.0,  999.0,  999.0,  999.0,  999.0,  999.0,  999.0,  999.0,  999.0,  999.0,  999.0,  999.0,  999.0,  999.0,  999.0,  999.0,  999.0,  999.0,  999.0,  999.0,  999.0,  999.0,  999.0
2001/03/11 04:40,    0.3,   -0.5,    0.1,    0.2,  999.0,    0.7,    0.4,    0.3,    0.3,    0.0,    0.2,    0.2,    0.1,    0.2,    0.3,  999.0,  999.0,  999.0,  999.0,  999.0,  999.0,  999.0,  999.0,  999.0,  999.0,  999.0,  999.0,  999.0,  999.0,  999.0,  999.0,  999.0,  999.0,  999.0,  999.0,  999.0,  999.0,  999.0,  999.0,  999.0,  999.0,  999.0,  999.0,  999.0,  999.0,  999.0,  999.0,  999.0,  999.0,  999.0,  999.0,  999.0,  999.0,  999.0,  999.0,  999.0,  999.0,  999.0
2001/03/11 04:50,  999.0,    0.6,    0.5,   -0.3,   -0.0,    0.6,   -0.0,   -0.0,    0.5,    0.1,    0.2,    0.0,    0.1,    0.2,  999.0,  999.0,  999.0,  999.0,  999.0,    0.0,    0.0,   -0.2,  999.0,  999.0,  999.0,    0.0,  999.0,   -0.1,  999.0,  999.0,  999.0,  999.0,  999.0,  999.0,  999.0,  999.0,  999.0,  999.0,  999.0,  999.0,   -0.4,   -0.4,   -0.4,  999.0,   -0.5,  999.0,  999.0,  999.0,  999.0,  999.0,  999.0,  999.0,  999.0,  999.0,  999.0,  999.0,  999.0,  999.0
2001/03/11 05:00,    0.2,    0.6,   -0.1,   -0.4,    0.4,    0.5,    0.6,    0.2,   -0.0,    0.1,    0.2,    0.3,    0.2,    0.2,    0.1,  999.0,  999.0,  999.0,  999.0,    0.0,  999.0,  999.0,  999.0,  999.0,  999.0,  999.0,   -0.0,  999.0,   -0.2,  999.0,  999.0,  999.0,  999.0,  999.0,  999.0,  999.0,  999.0,  999.0,  999.0,  999.0,  999.0,  999.0,  999.0,  999.0,  999.0,  999.0,  999.0,  999.0,  999.0,  999.0,  999.0,  999.0,  999.0,  999.0,   -0.2,   -0.2,  999.0,  999.0
2001/03/11 05:10,  999.0,  999.0,   -0.3,   -0.0,    0.5,    0.3,    0.0,    0.0,    0.1,    0.1,    0.2,    0.3,    0.2,    0.2,    0.1,  999.0,  999.0,  999.0,  999.0,  999.0,  999.0,  999.0,    0.2,    0.2,  999.0,   -0.0,  999.0,    0.2,    0.1,  999.0,  999.0,  999.0,    0.0,    0.1,  999.0,  999.0,  999.0,  999.0,  999.0,  999.0,  999.0,  999.0,  999.0,  999.0,  999.0,  999.0,   -0.3,  999.0,  999.0,   -0.1,  999.0,  999.0,  999.0,   -0.2,   -0.2,  999.0,  999.0,  999.0
2001/03/11 05:20,   -0.2,   -0.6,   -0.2,    0.4,    0.4,   -0.2,    0.3,    0.2,   -0.0,    0.0,    0.6,    0.1,    0.1,    0.1,    0.1,  999.0,  999.0,  999.0,  999.0,  999.0,  999.0,   -0.1,    0.1,   -0.2,  999.0,  999.0,  999.0,    0.0,  999.0,  999.0,  999.0,  999.0,  999.0,  999.0,  999.0,  999.0,  999.0,  999.0,  999.0,  999.0,  999.0,  999.0,   -0.1,  999.0,  999.0,  999.0,   -0.2,  999.0,  999.0,  999.0,  999.0,  999.0,  999.0,  999.0,  999.0,   -0.2,  999.0,  999.0
2001/03/11 05:30,    1.1,    0.9,    0.5,    1.1,    1.0,    0.5,    0.8,    0.7,    0.5,    0.7,    0.6,    0.4,    0.3,    0.2,    0.1,    0.4,    0.0,  999.0,   -0.4,  999.0,    0.0,    0.1,  999.0,   -0.6,   -0.1,    0.1,  999.0,  999.0,  999.0,  999.0,  999.0,  999.0,  999.0,  999.0,  999.0,  999.0,  999.0,  999.0,   -0.1,   -0.1,   -0.1,  999.0,  999.0,   -0.1,   -0.1,  999.0,  999.0,  999.0,   -0.1,   -0.1,  999.0,  999.0,   -0.2,  999.0,  999.0,   -0.2,   -0.2,   -0.2
2001/03/11 05:40,    0.5,    0.7,    0.5,    0.9,    0.7,    0.9,    0.9,    0.9,    0.8,    0.7,    0.7,    0.8,    0.7,    0.6,    0.4,    0.5,    0.4,  999.0,  999.0,  999.0,    0.1,   -0.0,  999.0,  999.0,  999.0,    0.1,  999.0,    0.1,  999.0,  999.0,  999.0,   -1.3,  999.0,    0.0,  999.0,  999.0,  999.0,  999.0,  999.0,  999.0,   -0.1,  999.0,  999.0,  999.0,  999.0,  999.0,  999.0,  999.0,  999.0,  999.0,  999.0,  999.0,  999.0,  999.0,  999.0,  999.0,  999.0,  999.0
2001/03/11 05:50,    0.9,    0.6,    0.4,    1.0,    1.0,    0.9,    0.9,    0.9,    0.8,    0.6,    0.7,    0.8,    0.8,    0.5,    0.6,    0.4,    0.5,    0.5,  999.0,  999.0,    0.1,    0.1,  999.0,  999.0,  999.0,    0.2,  999.0,  999.0,  999.0,  999.0,  999.0,  999.0,   -0.5,  999.0,   -0.5,  999.0,  999.0,  999.0,  999.0,  999.0,  999.0,  999.0,  999.0,  999.0,  999.0,  999.0,  999.0,  999.0,  999.0,  999.0,  999.0,  999.0,  999.0,  999.0,  999.0,  999.0,  999.0,  999.0
2001/03/11 06:00,    0.9,    0.7,    0.7,    0.8,    0.4,    0.9,    0.8,    0.8,    0.5,    0.7,    0.8,    0.7,    0.6,    0.5,    0.5,    0.4,    0.5,    0.5,    0.4,    0.4,    0.1,    0.1,  999.0,  999.0,  999.0,  999.0,    0.2,  999.0,  999.0,    0.1,  999.0,  999.0,  999.0,  999.0,  999.0,  999.0,  999.0,  999.0,  999.0,  999.0,  999.0,  999.0,  999.0,  999.0,  999.0,  999.0,  999.0,  999.0,  999.0,  999.0,  999.0,  999.0,  999.0,  999.0,  999.0,  999.0,  999.0,  999.0
2001/03/11 06:10,    0.5,    0.2,  999.0,   -0.1,    0.1,    0.2,    0.4,    0.5,    0.5,    0.5,    0.5,    0.6,    0.5,    0.5,    0.4,    0.3,    0.4,    0.3,    0.2,    0.2,   -0.0,    0.0,  999.0,  999.0,    0.2,    0.2,  999.0,  999.0,   -0.1,    0.5,  999.0,  999.0,  999.0,  999.0,  999.0,  999.0,  999.0,  999.0,  999.0,  999.0,  999.0,  999.0,  999.0,  999.0,  999.0,  999.0,  999.0,  999.0,  999.0,  999.0,  999.0,  999.0,  999.0,  999.0,  999.0,  999.0,  999.0,  999.0
2001/03/11 06:20,   -0.3,   -0.2,    0.2,    0.0,    0.1,    0.3,    0.2,    0.2,    0.3,    0.3,    0.1,    0.2,    0.0,    0.2,    0.1,    0.0,    0.1,    0.3,    0.1,    0.1,    0.2,   -0.0,  999.0,    0.0,  999.0,  999.0,  999.0,  999.0,    0.0,    0.1,  999.0,  999.0,  999.0,   -0.1,  999.0,  999.0,  999.0,  999.0,  999.0,  999.0,  999.0,  999.0,  999.0,  999.0,  999.0,  999.0,  999.0,  999.0,  999.0,  999.0,  999.0,  999.0,  999.0,  999.0,  999.0,  999.0,  999.0,  999.0
2001/03/11 06:30,   -0.0,   -0.3,    0.5,    0.0,    0.4,    0.4,    0.3,    0.2,    0.2,    0.3,    0.2,    0.2,    0.2,    0.3,    0.3,    0.1,    0.1,   -0.0,   -0.0,    0.0,    0.1,  999.0,  999.0,  999.0,  999.0,  999.0,  999.0,  999.0,    0.0,    0.1,  999.0,  999.0,  999.0,  999.0,  999.0,  999.0,  999.0,  999.0,  999.0,  999.0,  999.0,  999.0,  999.0,  999.0,  999.0,  999.0,  999.0,  999.0,  999.0,  999.0,  999.0,  999.0,  999.0,  999.0,  999.0,  999.0,  999.0,  999.0
2001/03/11 06:40,    0.1,    0.1,   -0.1,   -0.1,    0.0,    0.0,    0.1,    0.1,   -0.1,    0.4,    0.3,    0.4,    0.3,    0.4,    0.4,    0.3,    0.1,    0.2,   -0.0,    0.6,   -0.3,  999.0,  999.0,  999.0,    0.0,  999.0,  999.0,  999.0,  999.0,  999.0,  999.0,  999.0,  999.0,  999.0,  999.0,  999.0,  999.0,  999.0,  999.0,  999.0,  999.0,  999.0,  999.0,  999.0,  999.0,  999.0,  999.0,  999.0,  999.0,  999.0,  999.0,  999.0,  999.0,  999.0,  999.0,  999.0,  999.0,  999.0
2001/03/11 06:50,   -0.1,   -0.2,   -0.1,    0.0,    0.0,    0.1,   -0.1,    0.2,    0.2,    0.1,    0.2,    0.4,    0.4,    0.4,    0.4,    0.3,    0.2,    0.0,    0.3,    0.1,    0.2,  999.0,  999.0,  999.0,  999.0,  999.0,    5.7,  999.0,    5.6,    5.8,  999.0,  999.0,  999.0,  999.0,    5.6,  999.0,  999.0,  999.0,  999.0,  999.0,  999.0,  999.0,    5.5,  999.0,  999.0,  999.0,  999.0,  999.0,  999.0,  999.0,  999.0,  999.0,  999.0,  999.0,    5.3,  999.0,    4.7,  999.0
2001/03/11 07:00,   -0.2,    0.2,    0.0,    0.2,    0.3,   -0.3,   -0.5,    0.0,   -0.2,   -0.0,    0.1,    0.2,    0.2,    0.2,    0.3,    0.2,    0.1,   -0.0,   -0.0,    0.1,    0.1,  999.0,  999.0,  999.0,  999.0,  999.0,  999.0,  999.0,  999.0,  999.0,  999.0,  999.0,  999.0,  999.0,  999.0,  999.0,  999.0,  999.0,  999.0,  999.0,  999.0,  999.0,  999.0,  999.0,  999.0,  999.0,  999.0,  999.0,    2.3,  999.0,  999.0,  999.0,  999.0,  999.0,  999.0,  999.0,  999.0,  999.0
2001/03/11 07:10,    0.0,   -0.1,   -0.1,   -0.2,   -0.1,    0.2,   -0.6,   -0.3,    0.0,   -0.1,   -0.0,    0.2,    0.1,    0.1,   -0.1,   -0.1,   -0.1,   -0.1,   -0.2,   -0.1,   -0.1,  999.0,  999.0,  999.0,  999.0,  999.0,  999.0,  999.0,  999.0,  999.0,  999.0,  999.0,  999.0,  999.0,  999.0,  999.0,  999.0,  999.0,  999.0,  999.0,  999.0,  999.0,  999.0,  999.0,  999.0,  999.0,  999.0,  999.0,  999.0,  999.0,    2.2,  999.0,  999.0,  999.0,  999.0,  999.0,  999.0,  999.0
2001/03/11 07:20,    0.1,   -0.1,   -0.0,    0.0,   -0.0,   -0.5,   -0.4,   -0.3,    0.2,    0.2,    0.1,   -0.1,   -0.1,    0.1,    0.1,   -0.1,    0.1,    0.0,    0.1,   -0.0,   -0.1,  999.0,  999.0,  999.0,   -0.1,    0.1,  999.0,    0.6,  999.0,  999.0,   -0.0,  999.0,  999.0,  999.0,  999.0,  999.0,  999.0,  999.0,    1.2,  999.0,  999.0,    1.5,  999.0,  999.0,  999.0,  999.0,  999.0,  999.0,  999.0,  999.0,  999.0,    2.2,  999.0,  999.0,  999.0,  999.0,  999.0,  999.0
2001/03/11 07:30,    0.1,    0.0,    0.1,   -0.0,    0.2,   -0.6,    0.0,    0.4,    0.3,    0.3,    0.4,    0.4,    0.4,    0.3,    0.5,    0.0,    0.1,   -0.1,    0.1,   -0.1,    0.1,    0.0,  999.0,  999.0,  999.0,  999.0,  999.0,  999.0,  999.0,  999.0,  999.0,  999.0,  999.0,  999.0,  999.0,  999.0,  999.0,  999.0,  999.0,  999.0,  999.0,  999.0,  999.0,  999.0,  999.0,  999.0,  999.0,  999.0,  999.0,  999.0,  999.0,  999.0,  999.0,  999.0,  999.0,  999.0,  999.0,  999.0
2001/03/11 07:40,   -0.1,   -0.1,   -0.3,   -0.1,    0.1,   -0.4,    0.1,    0.4,   -0.1,    0.1,    0.1,    0.2,    0.2,    0.2,    0.2,    0.2,    0.2,    0.1,    0.1,   -0.1,   -0.1,  999.0,  999.0,  999.0,  999.0,  999.0,  999.0,   -0.1,   -0.0,  999.0,  999.0,  999.0,   -0.1,   -2.1,  999.0,  999.0,  999.0,  999.0,  999.0,  999.0,  999.0,  999.0,  999.0,  999.0,  999.0,  999.0,  999.0,  999.0,  999.0,  999.0,  999.0,  999.0,  999.0,  999.0,  999.0,  999.0,  999.0,  999.0
2001/03/11 07:50,   -0.0,   -0.1,    0.1,    0.0,    0.2,   -0.3,   -0.5,   -0.3,    0.2,   -0.5,   -0.1,    0.0,    0.0,   -0.0,    0.0,    0.1,   -0.1,    0.0,   -0.1,   -0.3,   -0.1,  999.0,  999.0,  999.0,  999.0,  999.0,  999.0,  999.0,    0.0,    0.1,    0.0,   -0.2,  999.0,  999.0,  999.0,  999.0,  999.0,  999.0,  999.0,  999.0,  999.0,  999.0,  999.0,  999.0,  999.0,  999.0,  999.0,  999.0,  999.0,  999.0,  999.0,  999.0,  999.0,  999.0,   -5.5,  999.0,   -5.7,   -5.5
2001/03/11 08:00,   -0.5,    0.1,   -0.4,   -0.5,   -0.4,   -0.2,   -0.3,   -0.6,   -0.4,   -0.4,   -0.3,   -0.0,    0.0,   -0.0,   -0.0,    0.1,    0.1,    0.2,    0.1,  999.0,  999.0,  999.0,    0.0,  999.0,  999.0,   -0.1,  999.0,  999.0,  999.0,   -0.5,   -0.1,    0.5,   -0.6,  999.0,  999.0,  999.0,  999.0,  999.0,  999.0,  999.0,  999.0,  999.0,  999.0,  999.0,  999.0,  999.0,  999.0,  999.0,  999.0,  999.0,  999.0,  999.0,  999.0,  999.0,  999.0,  999.0,  999.0,  999.0
2001/03/11 08:10,   -0.1,   -0.0,    0.2,    0.3,    0.5,   -0.0,    0.2,    0.0,   -0.0,    0.1,    0.1,    0.1,    0.2,    0.3,    0.1,    0.1,    0.1,    0.0,    0.0,   -0.1,  999.0,  999.0,  999.0,  999.0,  999.0,  999.0,  999.0,  999.0,  999.0,  999.0,  999.0,   -0.3,  999.0,  999.0,  999.0,  999.0,  999.0,  999.0,  999.0,  999.0,  999.0,  999.0,  999.0,  999.0,   -5.5,   -5.5,   -5.5,  999.0,  999.0,  999.0,  999.0,  999.0,  999.0,   -5.5,   -5.6,   -5.5,   -5.6,  999.0
2001/03/11 08:20,   -0.0,    0.1,    0.4,   -0.3,    0.4,  999.0,   -0.4,   -0.0,   -0.1,    0.1,    0.1,    0.1,    0.2,    0.2,    0.0,    0.2,    0.1,   -0.0,   -0.1,   -0.1,  999.0,  999.0,  999.0,   -0.3,   -0.4,  999.0,  999.0,  999.0,  999.0,  999.0,  999.0,  999.0,  999.0,  999.0,   -4.1,  999.0,   -5.4,  999.0,  999.0,   -5.4,  999.0,   -5.6,  999.0,   -5.5,   -5.6,   -5.4,   -5.6,   -5.4,   -5.5,   -5.4,   -5.4,  999.0,   -5.4,   -5.4,  999.0,   -5.5,   -5.6,   -5.4
2001/03/11 08:30,   -0.1,    0.1,    0.6,    0.7,    0.4,    0.4,    0.0,    0.3,    0.3,    0.5,    0.2,    0.6,    0.1,   -0.0,   -0.0,   -0.0,    0.0,    0.0,    0.0,    0.3,    0.0,  999.0,  999.0,  999.0,  999.0,  999.0,  999.0,  999.0,  999.0,  999.0,  999.0,  999.0,  999.0,  999.0,  999.0,  999.0,  999.0,   -5.6,  999.0,  999.0,  999.0,   -5.4,   -5.5,   -5.5,   -5.5,   -5.4,   -5.5,   -5.5,   -5.5,   -5.4,   -5.6,   -5.4,   -5.5,   -5.7,   -5.5,   -5.4,   -5.5,   -5.6
2001/03/11 08:40,    0.1,    0.4,    0.1,   -0.1,    0.1,    0.4,    0.1,    0.0,   -0.1,   -0.0,   -0.0,    0.1,    0.0,   -0.0,    0.0,    0.0,   -0.0,    0.5,    0.1,    0.2,    0.1,  999.0,  999.0,  999.0,  999.0,  999.0,  999.0,  999.0,  999.0,  999.0,  999.0,  999.0,  999.0,   -5.4,   -5.4,   -5.5,   -5.4,   -5.5,   -5.5,   -5.4,   -5.5,  999.0,   -5.5,   -5.4,   -5.5,   -5.3,  999.0,   -5.4,   -5.6,   -5.5,   -1.9,   -5.5,    5.6,   -1.8,  999.0,    0.0,   -5.4,   -5.4
2001/03/11 08:50,   -0.0,  999.0,  999.0,   -0.1,   -0.3,    0.1,   -0.0,    0.2,   -0.1,    0.1,    0.1,    0.3,    0.3,    0.0,    0.2,    0.1,    0.2,  999.0,  999.0,    0.1,   -0.1,   -0.2,   -0.9,  999.0,   -2.9,  999.0,  999.0,  999.0,  999.0,  999.0,  999.0,  999.0,   -5.5,   -3.6,  999.0,  999.0,   -5.4,   -5.6,   -5.5,   -5.5,   -5.6,   -5.5,   -5.6,   -5.4,   -5.4,   -5.5,   -5.6,   -5.5,   -5.5,   -5.5,  999.0,   -5.5,   -5.5,   -5.6,   -5.5,   -5.5,   -5.5,   -5.6
2001/03/11 09:00,   -0.3,  999.0,    0.1,    0.1,    0.3,    0.4,    0.2,    0.4,    0.2,    0.6,    0.3,    0.1,    0.2,  999.0,    0.2,    0.2,  999.0,    0.1,  999.0,  999.0,  999.0,  999.0,  999.0,  999.0,  999.0,  999.0,  999.0,  999.0,  999.0,  999.0,   -5.4,  999.0,   -5.5,   -5.4,   -5.5,  999.0,   -5.5,   -5.5,  999.0,  999.0,   -5.5,   -5.5,   -5.5,   -5.5,   -5.6,   -5.6,   -5.4,   -5.5,  999.0,   -5.7,   -5.5,   -5.6,   -5.4,   -5.5,   -5.5,   -5.7,  999.0,   -5.5
2001/03/11 09:10,   -0.3,   -0.4,  999.0,   -0.4,   -0.2,   -0.3,   -0.4,   -0.2,    0.0,    0.1,    0.1,    0.0,    0.2,   -0.2,    0.2,    0.0,    0.2,    0.1,  999.0,  999.0,  999.0,  999.0,    0.2,  999.0,  999.0,  999.0,  999.0,  999.0,  999.0,   -5.4,  999.0,  999.0,   -5.4,  999.0,   -5.5,   -5.4,   -5.5,   -5.5,   -5.5,   -5.5,   -5.4,   -5.5,   -5.5,  999.0,   -5.4,   -5.6,   -5.4,   -5.6,   -5.4,   -5.5,   -5.5,   -5.4,   -5.5,   -5.6,   -5.5,   -5.4,   -5.5,   -5.5
2001/03/11 09:20,   -0.3,   -0.4,   -0.3,   -0.6,   -0.5,   -0.2,   -0.4,   -0.1,    0.0,    0.2,    0.3,    0.1,    0.1,    0.2,    0.1,    0.2,    0.1,   -0.1,    0.0,  999.0,  999.0,  999.0,  999.0,   -1.6,  999.0,  999.0,  999.0,  999.0,  999.0,  999.0,   -0.2,  999.0,  999.0,   -5.6,  999.0,  999.0,   -5.4,   -5.3,   -5.5,   -5.5,   -5.4,  999.0,   -5.8,   -5.6,   -5.4,   -5.5,   -5.3,   -5.5,   -5.4,   -5.4,   -5.5,   -5.5,   -5.8,  999.0,  999.0,   -5.6,  999.0,   -5.5
2001/03/11 09:30,   -0.4,  999.0,   -0.3,    0.2,  999.0,   -0.1,   -0.0,    0.1,    0.6,    0.3,    0.4,    0.1,   -0.0,    0.4,    0.1,    0.3,    0.1,    0.2,    0.0,  999.0,  999.0,   -0.2,  999.0,  999.0,  999.0,  999.0,  999.0,  999.0,  999.0,  999.0,  999.0,  999.0,   -5.4,  999.0,   -5.3,  999.0,   -5.5,   -5.5,   -5.5,   -5.6,  999.0,   -5.5,   -5.3,   -5.5,   -5.5,   -5.6,   -5.4,   -5.5,   -5.4,   -5.5,   -5.5,   -5.5,   -5.7,   -5.4,  999.0,   -5.4,   -5.5,   -5.4
2001/03/11 09:40,   -0.6,   -0.6,   -0.3,    0.6,    0.1,    0.1,    0.4,    0.6,    0.4,    0.5,    0.2,    0.1,    0.3,    0.4,    0.5,    0.2,    0.4,    0.4,    0.1,    0.4,   -0.8,  999.0,  999.0,  999.0,  999.0,  999.0,  999.0,  999.0,  999.0,  999.0,  999.0,  999.0,  999.0,  999.0,  999.0,  999.0,  999.0,  999.0,  999.0,    0.7,  999.0,  999.0,   -5.6,   -5.4,   -5.6,   -5.5,   -5.6,  999.0,  999.0,  999.0,   -5.5,  999.0,   -5.5,   -5.5,  999.0,   -5.5,  999.0,   -5.4
2001/03/11 09:50,   -0.3,   -0.1,   -0.4,   -0.3,    0.1,   -0.4,   -0.1,   -0.2,  999.0,  999.0,   -0.3,   -0.6,   -0.3,    0.3,    0.3,    0.3,    0.2,    0.2,    0.1,    0.2,  999.0,  999.0,  999.0,  999.0,   -1.3,  999.0,  999.0,  999.0,  999.0,  999.0,  999.0,  999.0,  999.0,  999.0,  999.0,  999.0,  999.0,  999.0,  999.0,  999.0,  999.0,  999.0,   -5.6,   -5.5,   -5.6,   -5.5,   -5.5,   -5.5,   -5.4,   -5.4,   -5.5,   -5.5,   -5.5,   -5.5,  999.0,   -5.6,   -5.5,   -5.5
2001/03/11 10:00,   -0.7,   -0.3,   -0.2,    0.0,   -0.2,   -0.4,   -0.6,   -0.9,    0.0,    0.0,   -0.1,   -0.5,   -0.1,    0.0,    0.1,  999.0,  999.0,   -0.3,   -0.0,    0.0,   -0.0,  999.0,  999.0,  999.0,   -0.5,  999.0,  999.0,  999.0,  999.0,  999.0,  999.0,  999.0,  999.0,  999.0,  999.0,  999.0,  999.0,  999.0,  999.0,  999.0,  999.0,  999.0,  999.0,    5.5,  999.0,   -5.4,    5.5,    5.6,   -5.4,  999.0,    5.6,  999.0,    5.5,    0.0,    5.4,    0.1,    0.0,   -5.5
2001/03/11 10:10,    0.1,   -0.0,   -0.2,   -0.6,   -0.4,   -0.1,   -0.0,   -0.0,   -0.4,  999.0,  999.0,    0.4,    0.6,    0.0,    0.3,    0.0,  999.0,    0.2,    0.3,    0.1,    0.0,  999.0,  999.0,  999.0,  999.0,  999.0,  999.0,  999.0,  999.0,  999.0,  999.0,  999.0,  999.0,  999.0,  999.0,  999.0,  999.0,  999.0,  999.0,  999.0,  999.0,   -5.4,  999.0,  999.0,   -5.5,   -5.3,   -5.5,   -5.5,   -5.5,   -5.6,   -5.6,   -5.5,   -5.5,  999.0,   -5.5,   -5.5,   -5.5,   -5.5
2001/03/11 10:20,   -0.4,   -0.3,   -0.2,   -0.1,   -0.3,   -0.3,   -0.0,   -0.4,   -0.3,   -0.9,   -0.2,   -0.6,   -0.1,    0.0,   -0.1,   -0.2,   -0.1,    0.0,   -0.2,   -0.1,   -0.1,  999.0,  999.0,  999.0,  999.0,  999.0,  999.0,  999.0,  999.0,  999.0,  999.0,  999.0,  999.0,  999.0,  999.0,  999.0,  999.0,  999.0,  999.0,  999.0,  999.0,  999.0,  999.0,  999.0,  999.0,  999.0,  999.0,   -5.4,  999.0,   -5.5,  999.0,   -5.5,   -5.6,  999.0,   -5.4,   -5.5,  999.0,   -5.3
2001/03/11 10:30,   -0.3,   -0.3,   -0.3,   -0.1,    0.0,   -0.3,    0.0,   -0.1,    0.2,  999.0,   -0.5,    0.1,    0.1,    0.2,    0.1,   -0.0,    0.2,  999.0,  999.0,    0.1,   -0.0,  999.0,  999.0,   -0.0,    1.1,  999.0,  999.0,  999.0,  999.0,  999.0,  999.0,  999.0,  999.0,  999.0,  999.0,  999.0,   -3.7,  999.0,  999.0,   -5.4,  999.0,   -5.4,   -5.6,  999.0,  999.0,   -5.5,   -5.5,   -5.3,   -5.5,   -5.5,   -5.6,   -5.5,   -5.5,   -5.5,   -5.5,   -5.5,   -5.5,   -5.7
2001/03/11 10:40,   -0.2,   -0.3,   -0.3,   -0.1,   -0.2,    0.0,    0.3,    0.2,    0.5,    0.0,  999.0,    0.1,    0.2,    0.0,  999.0,    0.1,  999.0,  999.0,    0.0,    0.1,    0.1,  999.0,   -0.2,  999.0,   -0.2,  999.0,  999.0,  999.0,  999.0,  999.0,  999.0,  999.0,  999.0,  999.0,  999.0,  999.0,  999.0,  999.0,  999.0,  999.0,  999.0,   -5.7,   -5.5,   -5.6,   -5.5,  999.0,   -5.6,  999.0,   -5.6,  999.0,   -5.6,   -5.4,  999.0,  999.0,   -5.6,   -5.6,  999.0,   -5.5
2001/03/11 10:50,   -0.3,   -0.1,   -0.1,   -0.3,    0.1,   -0.1,   -0.6,   -0.2,    0.2,   -0.0,   -0.0,   -0.1,   -0.0,  999.0,    0.0,  999.0,  999.0,  999.0,    0.1,   -0.1,   -0.3,  999.0,  999.0,  999.0,  999.0,  999.0,  999.0,  999.0,  999.0,  999.0,  999.0,  999.0,  999.0,  999.0,  999.0,   -5.3,   -5.6,   -5.5,   -5.7,   -5.5,  999.0,   -5.6,   -5.5,   -5.6,   -5.4,   -5.5,   -5.5,   -5.5,   -5.6,   -5.5,   -5.6,   -5.6,   -5.6,   -5.6,   -5.5,   -5.4,   -5.4,  999.0
2001/03/11 11:00,   -0.7,   -0.4,   -0.3,   -0.3,   -0.3,   -0.3,   -0.2,   -0.1,   -0.6,   -0.0,    0.2,   -0.1,   -0.1,    0.0,  999.0,   -0.2,  999.0,  999.0,  999.0,   -0.0,   -0.2,   -1.1,  999.0,  999.0,  999.0,    0.2,  999.0,  999.0,  999.0,    0.1,  999.0,  999.0,    0.2,  999.0,  999.0,   -5.5,  999.0,  999.0,  999.0,   -2.7,  999.0,  999.0,  999.0,   -5.5,   -5.6,   -5.6,   -5.6,   -5.5,   -5.6,   -5.5,   -5.5,   -5.6,   -5.5,   -5.5,  999.0,   -5.6,   -5.5,  999.0
2001/03/11 11:10,   -0.1,   -0.2,    0.0,   -0.0,    0.1,   -0.0,   -0.0,    0.2,    0.2,    0.3,    0.4,    0.2,    0.3,    0.1,    0.1,  999.0,  999.0,   -0.0,    0.4,    0.2,    0.1,  999.0,    0.3,  999.0,   -1.7,  999.0,  999.0,  999.0,  999.0,  999.0,  999.0,  999.0,  999.0,  999.0,  999.0,  999.0,  999.0,  999.0,  999.0,   -5.5,   -5.5,   -5.5,  999.0,   -5.5,   -5.5,   -5.5,   -5.5,   -5.5,  999.0,   -5.5,   -5.5,   -5.5,   -5.4,   -5.5,   -5.5,   -5.6,   -5.4,   -5.5
2001/03/11 11:20,   -0.2,   -0.5,   -0.5,   -0.3,   -0.1,    0.2,    0.0,    0.0,   -0.0,    0.3,    0.2,    0.1,   -0.1,    0.1,    0.2,   -0.2,  999.0,  999.0,  999.0,  999.0,  999.0,  999.0,  999.0,  999.0,  999.0,  999.0,  999.0,  999.0,  999.0,  999.0,  999.0,  999.0,  999.0,  999.0,  999.0,   -5.7,   -5.5,   -5.6,   -5.5,   -5.5,  999.0,   -5.6,   -5.6,  999.0,   -5.5,   -5.6,   -5.6,   -5.6,   -5.7,   -5.6,   -5.5,   -5.5,   -5.6,   -5.5,   -5.5,   -5.8,   -5.6,   -5.4
2001/03/11 11:30,   -0.7,   -0.7,   -0.4,   -0.5,   -0.1,    0.0,   -0.3,    0.1,    0.1,    0.0,   -2.9,  999.0,   -1.5,   -0.8,   -5.3,  999.0,  999.0,  999.0,  999.0,   -2.7,  999.0,   -5.6,   -5.7,  999.0,  999.0,  999.0,  999.0,   -5.4,  999.0,  999.0,  999.0,  999.0,   -5.5,   -5.5,   -5.5,  999.0,   -5.6,   -5.5,   -5.5,   -5.5,   -5.5,   -5.5,   -5.6,   -5.5,   -5.6,   -5.6,   -5.6,   -5.4,   -5.4,   -5.5,   -5.5,   -5.5,   -5.6,   -5.6,   -5.4,   -5.4,   -5.5,   -5.4
2001/03/11 11:40,   -0.1,   -0.5,   -0.2,   -0.4,   -0.4,   -0.6,   -0.3,    0.0,    0.0,    0.2,  999.0,    0.2,    0.1,   -0.0,  999.0,  999.0,  999.0,  999.0,  999.0,  999.0,  999.0,  999.0,  999.0,  999.0,  999.0,  999.0,   -5.3,  999.0,   -5.4,   -2.6,   -5.7,   -5.4,  999.0,   -5.4,   -5.5,   -5.6,   -5.4,   -5.5,   -5.5,   -5.6,   -5.6,   -5.5,   -5.5,   -5.5,   -5.5,   -5.5,   -5.6,   -5.6,   -5.6,   -5.5,   -5.5,   -5.6,   -5.5,   -5.5,  999.0,  999.0,   -5.4,   -5.5
2001/03/11 11:50,   -0.0,    0.3,    0.4,    0.4,   -0.7,   -0.1,   -0.6,   -0.3,   -0.3,    0.0,  999.0,    0.3,    0.2,  999.0,  999.0,  999.0,  999.0,   -1.7,  999.0,  999.0,  999.0,  999.0,  999.0,  999.0,  999.0,  999.0,  999.0,  999.0,  999.0,   -5.5,  999.0,  999.0,   -5.6,   -5.7,   -5.6,  999.0,   -5.5,  999.0,  999.0,   -5.7,  999.0,   -5.6,  999.0,   -5.7,   -5.6,   -5.5,   -5.5,   -5.6,   -5.6,  999.0,  999.0,  999.0,  999.0,   -5.6,  999.0,  999.0,   -5.6,   -5.4
2001/03/11 12:00,    0.2,    0.3,   -0.2,    0.2,    0.4,    0.0,   -0.2,   -0.2,   -0.1,   -0.6,   -0.0,  999.0,   -0.0,   -0.1,  999.0,  999.0,  999.0,    0.0,  999.0,  999.0,  999.0,  999.0,  999.0,  999.0,  999.0,  999.0,  999.0,  999.0,  999.0,  999.0,  999.0,   -5.5,   -5.6,   -5.6,  999.0,   -5.8,   -5.5,   -5.6,   -5.7,   -5.7,   -5.7,  999.0,  999.0,  999.0,  999.0,  999.0,  999.0,  999.0,  999.0,   -5.5,  999.0,  999.0,  999.0,   -5.5,  999.0,   -5.6,  999.0,   -5.6
2001/03/11 12:10,    0.4,    0.4,    0.2,   -0.6,   -0.1,   -0.0,   -0.0,   -0.2,   -0.3,   -0.2,   -0.1,   -0.2,   -0.3,    0.0,   -0.4,   -0.3,  999.0,  999.0,  999.0,  999.0,  999.0,  999.0,  999.0,  999.0,  999.0,  999.0,  999.0,  999.0,  999.0,  999.0,    0.1,  999.0,  999.0,  999.0,  999.0,  999.0,  999.0,  999.0,  999.0,  999.0,  999.0,  999.0,  999.0,  999.0,  999.0,  999.0,  999.0,  999.0,  999.0,  999.0,  999.0,  999.0,  999.0,  999.0,  999.0,  999.0,  999.0,  999.0
2001/03/11 12:20,    0.5,    0.4,    0.6,    0.3,    0.0,    0.7,    0.6,    0.4,    0.1,    0.0,   -0.1,    0.0,    0.0,   -0.2,   -0.4,   -0.3,   -0.7,   -1.1,  999.0,   -0.4,   -0.2,  999.0,  999.0,  999.0,  999.0,  999.0,  999.0,  999.0,  999.0,  999.0,   -5.2,   -5.0,   -5.3,   -4.9,   -5.7,   -5.1,   -1.9,   -5.5,   -5.8,   -5.7,   -5.6,   -5.8,   -5.2,  999.0,  999.0,   -5.5,  999.0,  999.0,   -5.6,  999.0,   -5.5,   -5.5,   -5.5,   -5.6,   -5.4,   -5.5,  999.0,   -5.4
2001/03/11 12:30,    0.1,    0.1,   -0.0,   -0.1,    0.0,    0.2,    0.1,    0.1,   -0.0,   -0.0,   -0.2,   -0.4,   -0.3,   -0.3,   -0.6,   -0.6,   -0.7,   -0.8,   -0.9,   -0.7,   -3.9,   -4.6,   -3.7,   -4.1,   -4.2,   -4.2,   -6.1,   -6.1,   -6.6,   -6.1,  999.0,  999.0,   -5.9,   -6.9,   -7.6,   -7.0,   -8.5,   -6.8,   -7.6,   -6.6,   -6.7,   -6.0,   -6.0,   -5.8,   -5.6,   -5.7,   -5.7,   -6.0,   -6.5,   -6.2,   -6.3,   -6.5,   -7.2,   -7.3,   -6.4,   -7.0,   -6.2,   -6.0
2001/03/11 12:40,   -4.8,   -4.7,   -4.6,   -4.6,   -4.7,   -4.7,   -4.8,   -4.8,   -5.1,   -5.0,   -4.7,   -5.4,   -5.0,   -4.9,   -5.8,   -7.9,   -7.0,   -6.9,   -6.9,   -6.9,   -8.4,   -7.2,   -8.1,   -8.1,   -8.1,   -8.3,   -8.5,   -7.5,   -7.5,   -7.7,   -9.2,   -8.5,   -9.5,   -9.2,   -8.7,   -8.3,   -8.0,   -7.4,   -7.0,   -6.6,   -6.1,   -5.7,   -5.5,   -5.1,   -4.6,   -4.0,   -3.7,   -3.7,   -3.7,   -4.0,   -4.3,   -4.4,   -4.4,   -4.3,   -4.3,   -4.1,   -3.9,   -3.7
2001/03/11 12:50,   -5.2,   -5.2,   -5.1,   -5.1,   -5.1,   -5.1,   -5.1,   -5.1,   -5.0,   -5.0,   -4.9,   -4.9,   -4.9,   -4.9,   -4.9,   -5.1,   -5.2,   -5.3,   -5.3,   -5.3,   -5.3,   -5.2,   -5.2,   -5.2,   -5.2,   -5.2,   -5.2,   -5.2,   -5.4,   -5.5,   -5.8,   -6.1,   -6.3,   -6.5,   -6.9,   -7.0,   -7.0,   -6.8,   -6.1,   -5.3,   -4.6,   -4.0,   -3.7,   -3.5,   -3.3,   -3.3,   -3.3,   -3.3,   -3.4,   -3.4,   -3.4,   -3.3,   -3.0,   -2.9,   -2.7,   -2.4,   -2.2,   -1.9
2001/03/11 13:00,   -4.8,   -4.8,   -4.8,   -4.9,   -5.0,   -5.1,   -5.1,   -5.1,   -5.2,   -5.2,   -5.2,   -5.2,   -5.3,   -5.3,   -5.4,   -5.5,   -5.5,   -5.5,   -5.6,   -5.8,   -5.8,   -5.9,   -5.9,   -5.9,   -5.9,   -5.9,   -5.9,   -5.8,   -5.8,   -5.7,   -5.6,   -5.6,   -5.5,   -5.6,   -5.6,   -5.5,   -5.6,   -5.6,   -5.3,   -4.8,   -4.0,   -3.1,   -2.6,   -2.5,   -2.4,   -2.4,   -2.3,   -2.2,   -2.1,   -1.9,   -1.7,   -1.6,   -1.7,   -1.5,   -1.3,   -1.3,   -1.3,   -1.2
2001/03/11 13:10,   -3.8,   -3.6,   -3.6,   -4.0,   -4.5,   -5.0,   -5.1,   -5.0,   -5.0,   -5.1,   -5.1,   -5.1,   -5.1,   -5.0,   -5.0,   -4.8,   -4.7,   -4.6,   -4.6,   -4.6,   -4.6,   -4.8,   -4.8,   -4.8,   -4.7,   -4.7,   -4.8,   -4.7,   -4.6,   -4.4,   -4.2,   -4.0,   -3.8,   -3.5,   -3.4,   -3.3,   -3.3,   -3.5,   -3.6,   -3.6,   -3.9,   -3.3,   -2.5,   -1.9,   -1.7,   -1.6,   -1.5,   -1.4,   -1.3,   -1.3,   -1.4,   -1.2,   -1.4,   -1.5,   -1.6,   -1.5,   -1.2,   -1.1
2001/03/11 13:20,   -4.2,   -4.2,   -4.3,   -4.2,   -4.2,   -4.2,   -4.0,   -4.2,   -4.1,   -4.2,   -4.2,   -4.1,   -4.1,   -4.0,   -3.9,   -3.9,   -3.9,   -3.9,   -3.8,   -3.8,   -3.8,   -3.9,   -3.8,   -3.7,   -3.6,   -3.5,   -3.5,   -3.5,   -3.7,   -3.5,   -3.4,   -3.4,   -2.8,   -2.4,   -1.9,   -1.9,   -2.0,  999.0,  999.0,  999.0,  999.0,  999.0,  999.0,  999.0,  999.0,  999.0,  999.0,  999.0,  999.0,  999.0,  999.0,  999.0,  999.0,  999.0,  999.0,   -0.6,   -1.6,   -1.5
2001/03/11 13:30,   -4.6,   -4.6,   -4.6,   -4.5,   -4.4,   -4.4,   -4.4,   -4.3,   -4.3,   -4.3,   -4.3,   -4.3,   -4.3,   -4.3,   -4.3,   -4.4,   -4.3,   -4.2,   -4.2,   -4.3,   -4.4,   -4.4,   -4.4,   -4.3,   -4.2,   -4.0,   -3.9,   -3.9,   -3.9,   -3.7,   -3.7,   -3.7,   -3.7,   -4.4,   -4.6,   -4.7,   -4.9,   -5.1,   -5.2,   -5.4,   -4.7,   -3.2,   -2.9,  999.0,  999.0,  999.0,  999.0,  999.0,   -1.0,   -0.9,   -1.1,   -1.4,   -1.2,   -1.4,   -1.3,   -1.4,   -1.3,   -1.4
2001/03/11 13:40,   -5.5,   -5.5,   -5.4,   -5.3,   -5.2,   -5.2,   -5.1,   -4.9,   -4.8,   -4.7,   -4.6,   -4.4,   -4.1,   -4.1,   -4.0,   -4.0,   -3.9,   -3.7,   -3.6,   -3.6,   -3.5,   -3.5,   -3.3,   -3.2,   -3.0,   -2.8,   -2.6,   -2.4,   -2.2,   -2.1,   -2.3,   -2.6,   -2.4,  999.0,  999.0,  999.0,  999.0,  999.0,  999.0,  999.0,  999.0,  999.0,  999.0,  999.0,  999.0,   -1.1,   -1.2,   -1.2,   -1.2,   -1.0,   -1.2,   -1.3,   -1.4,   -1.4,   -1.5,   -1.6,   -1.8,   -1.8
2001/03/11 13:50,   -5.0,   -4.6,   -4.6,   -4.4,   -4.3,   -4.2,   -4.0,   -3.9,   -3.9,   -3.9,   -3.8,   -3.7,   -3.6,   -3.4,   -3.4,   -3.4,   -3.3,   -3.3,   -3.1,   -3.0,   -2.8,   -2.8,   -2.8,   -2.9,   -2.9,   -2.6,   -2.4,  999.0,  999.0,  999.0,  999.0,   -2.7,   -5.7,  999.0,   -2.4,  999.0,   -4.1,   -2.3,  999.0,  999.0,   -2.3,  999.0,  999.0,  999.0,  999.0,  999.0,  999.0,  999.0,  999.0,   -1.4,   -1.5,   -1.4,   -1.3,   -1.1,   -1.1,   -1.1,   -1.1,   -1.0
2001/03/11 14:00,   -3.3,   -3.2,   -2.9,   -2.8,   -2.4,   -2.4,   -2.9,   -2.9,   -2.8,   -2.8,   -1.4,   -2.6,   -1.5,   -1.2,   -2.4,   -2.3,   -0.9,   -2.4,   -2.5,  999.0,  999.0,  999.0,  999.0,    5.5,    5.6,  999.0,  999.0,  999.0,  999.0,  999.0,  999.0,  999.0,  999.0,  999.0,  999.0,  999.0,  999.0,  999.0,  999.0,  999.0,    0.5,  999.0,  999.0,  999.0,  999.0,  999.0,  999.0,  999.0,  999.0,  999.0,  999.0,   -5.4,   -5.5,  999.0,  999.0,   -5.5,  999.0,   -5.5
2001/03/11 14:10,   -0.1,   -0.2,   -0.1,   -0.2,   -0.1,    0.1,   -0.1,   -0.1,    0.0,    0.2,    0.1,    0.1,    0.1,    0.2,    0.2,    0.2,    0.2,    0.3,  999.0,  999.0,  999.0,  999.0,  999.0,  999.0,  999.0,   -0.5,   -0.1,  999.0,  999.0,  999.0,  999.0,  999.0,  999.0,  999.0,  999.0,  999.0,  999.0,  999.0,  999.0,    0.1,  999.0,   -1.4,  999.0,  999.0,  999.0,  999.0,  999.0,  999.0,   -5.5,  999.0,   -5.5,   -5.4,  999.0,   -5.3,   -5.4,   -5.4,  999.0,   -5.5
2001/03/11 14:20,   -0.1,   -0.2,   -0.1,   -0.7,   -1.0,   -0.1,   -0.0,   -0.1,   -0.1,   -0.4,   -0.1,   -0.0,    0.1,   -0.1,   -0.2,   -0.1,  999.0,   -0.2,  999.0,   -0.0,  999.0,  999.0,  999.0,  999.0,  999.0,  999.0,  999.0,  999.0,  999.0,  999.0,  999.0,  999.0,  999.0,  999.0,  999.0,  999.0,  999.0,  999.0,  999.0,  999.0,  999.0,  999.0,   -5.6,  999.0,  999.0,   -0.1,   -5.5,   -5.5,  999.0,   -5.4,   -5.5,  999.0,  999.0,   -5.5,  999.0,  999.0,   -5.4,   -5.6
2001/03/11 14:30,    0.0,   -0.0,    0.0,    0.1,    0.2,    0.2,    0.3,    0.2,    0.4,    0.3,    0.4,    0.6,    0.3,    0.9,   -0.1,    0.4,   -0.1,    0.4,  999.0,    0.5,  999.0,  999.0,  999.0,  999.0,  999.0,  999.0,  999.0,  999.0,  999.0,  999.0,   -3.9,  999.0,  999.0,  999.0,  999.0,  999.0,  999.0,  999.0,  999.0,  999.0,  999.0,  999.0,   -5.5,  999.0,  999.0,   -5.5,  999.0,   -5.6,   -5.6,   -5.5,   -5.7,   -5.5,  999.0,   -5.4,   -5.5,   -5.5,   -5.5,  999.0
2001/03/11 14:40,   -0.1,   -0.3,   -0.2,   -0.1,   -0.2,   -0.2,   -0.2,   -0.1,   -0.2,   -0.1,   -0.3,   -0.2,   -0.3,   -0.3,   -0.2,   -0.4,   -0.3,   -0.1,  999.0,  999.0,  999.0,  999.0,  999.0,  999.0,  999.0,   -2.0,  999.0,  999.0,   -2.2,  999.0,  999.0,  999.0,   -2.4,  999.0,  999.0,  999.0,  999.0,  999.0,  999.0,  999.0,  999.0,   -5.6,   -5.5,   -5.4,   -5.5,   -5.5,   -5.5,   -5.5,   -5.5,  999.0,   -5.5,   -5.5,   -5.5,   -5.4,   -5.5,  999.0,   -5.4,   -5.8
2001/03/11 14:50,   -0.0,   -0.0,   -0.1,   -0.2,   -0.1,   -0.2,   -0.1,   -0.0,    0.2,   -0.0,   -0.2,  999.0,   -0.2,   -0.5,   -1.3,   -0.6,   -1.2,   -1.0,   -0.7,   -1.5,   -1.4,   -1.7,   -1.2,   -0.9,   -1.1,   -2.3,   -0.6,   -1.7,   -2.4,  999.0,   -3.7,    0.0,   -0.8,   -5.8,   -0.5,   -0.4,  999.0,   -2.6,    0.1,   -5.5,   -0.2,  999.0,  999.0,   -5.8,  999.0,   -5.4,   -0.7,   -5.4,  999.0,   -5.5,  999.0,  999.0,  999.0,   -5.6,  999.0,  999.0,  999.0,  999.0
2001/03/11 15:00,   -2.0,   -2.1,   -2.1,   -2.0,   -2.3,   -2.2,   -2.5,   -2.2,   -2.2,   -2.1,   -1.9,   -1.8,   -1.9,   -2.0,   -2.0,   -2.4,   -2.4,   -2.2,   -2.3,   -2.7,   -2.5,   -2.3,   -2.0,   -1.8,   -1.6,   -2.2,   -1.6,   -2.2,   -1.9,   -1.9,   -2.1,   -2.3,   -2.4,   -2.2,   -2.2,   -2.4,   -2.0,   -1.7,   -1.6,   -1.7,   -3.2,   -1.7,  999.0,  999.0,   -1.1,  999.0,   -2.2,  999.0,  999.0,   -2.0,   -2.1,   -2.6,   -1.8,   -2.0,  999.0,   -3.0,   -2.9,   -2.9
2001/03/11 15:10,   -0.2,   -0.5,   -0.1,    0.0,   -0.7,   -0.9,   -0.9,   -1.0,   -1.2,   -1.3,   -1.2,   -1.1,   -1.0,   -1.0,   -0.9,   -0.7,   -0.8,   -0.8,   -0.9,   -0.8,   -0.9,   -0.9,   -1.0,   -0.9,   -0.8,   -0.1,   -1.3,   -2.1,   -3.9,   -3.9,   -3.9,   -4.1,   -4.1,   -4.2,   -4.2,   -4.0,   -4.2,   -3.9,   -3.7,   -4.0,   -3.9,   -3.4,   -3.0,   -2.7,   -5.6,   -3.9,   -3.0,  999.0,  999.0,  999.0,   -1.6,   -2.2,   -2.6,   -2.7,   -2.7,   -2.2,   -2.1,   -2.1
2001/03/11 15:20,   -3.8,   -3.8,   -3.7,   -3.5,   -3.3,   -3.3,   -3.1,   -2.9,   -2.8,   -3.0,   -3.0,   -2.9,   -2.6,   -2.5,   -1.8,   -1.6,   -1.0,   -1.3,   -1.2,   -1.2,   -1.0,   -1.7,   -2.1,   -1.9,   -2.2,   -2.3,   -3.3,   -2.5,   -3.0,   -3.1,   -2.8,   -3.4,   -3.0,   -3.3,   -3.4,   -2.9,   -3.2,   -3.0,   -2.8,   -2.9,   -3.0,   -2.5,   -2.4,   -2.3,   -3.0,   -2.1,   -1.8,   -1.9,   -2.0,   -2.1,   -2.0,   -2.2,   -2.3,   -2.2,   -2.3,   -2.3,   -2.2,   -2.3
2001/03/11 15:30,   -2.4,   -2.5,   -2.3,   -2.1,   -1.9,   -1.9,   -2.1,   -2.0,   -2.0,   -2.0,   -2.1,   -2.3,   -2.3,   -2.3,   -2.4,   -2.3,   -2.2,   -2.0,   -1.8,   -1.7,   -1.5,   -1.5,   -1.4,   -1.4,   -1.4,   -1.5,   -1.5,   -1.7,   -2.0,   -2.4,   -2.3,   -2.4,   -2.5,   -2.5,   -2.5,   -2.4,   -2.8,   -1.9,   -2.4,   -2.2,   -2.0,   -2.2,   -2.5,   -2.1,   -1.8,   -1.1,   -1.1,   -1.3,   -1.7,   -1.9,   -2.0,   -2.1,   -2.1,   -2.1,   -2.2,   -2.3,   -2.4,   -2.6
2001/03/11 15:40,   -1.1,   -1.4,   -1.4,   -1.4,   -1.4,   -1.6,   -1.7,   -1.6,   -1.5,   -1.6,   -1.4,   -1.3,   -1.4,   -1.4,   -1.4,   -1.5,   -1.5,   -1.4,   -1.5,   -1.5,   -1.5,   -1.5,   -1.5,   -1.5,   -1.4,   -1.4,   -1.5,   -1.6,   -1.7,   -1.9,   -1.8,   -1.9,   -1.9,   -1.9,   -1.9,   -1.9,   -1.9,   -1.9,   -1.8,   -2.1,   -2.2,   -2.2,   -2.0,   -2.1,   -1.8,   -1.9,   -1.8,   -1.5,   -1.6,   -1.6,   -1.4,   -1.7,   -2.0,   -2.2,   -2.5,   -2.7,   -2.9,   -3.1
2001/03/11 15:50,   -1.8,   -1.8,   -1.9,   -2.0,   -2.0,   -2.0,   -2.0,   -1.9,   -1.8,   -1.7,   -1.8,   -1.8,   -1.8,   -1.8,   -1.7,   -1.6,   -1.5,   -1.6,   -1.7,   -1.7,   -1.8,   -1.9,   -2.0,   -2.1,   -2.1,   -2.1,   -2.1,   -2.1,   -2.2,   -2.2,   -2.3,   -2.3,   -2.4,   -2.5,   -2.6,   -2.6,   -2.6,   -2.4,   -2.3,   -2.4,   -2.2,   -2.9,   -2.2,   -1.6,   -1.4,   -1.4,   -1.5,   -1.6,   -1.7,   -1.8,   -1.9,   -2.0,   -2.0,   -2.1,   -2.3,   -2.5,   -2.8,   -3.0
2001/03/11 16:00,   -1.9,   -1.8,   -1.8,   -1.8,   -1.8,   -1.9,   -1.9,   -1.9,   -1.9,   -1.9,   -1.9,   -1.9,   -1.9,   -1.8,   -1.7,   -1.7,   -1.7,   -1.6,   -1.6,   -1.6,   -1.6,   -1.7,   -1.7,   -1.7,   -1.7,   -1.7,   -1.7,   -1.6,   -1.6,   -1.6,   -1.7,   -1.6,   -1.6,   -1.6,   -1.5,   -1.5,   -1.5,   -1.5,   -1.8,   -1.7,   -1.9,   -2.7,   -2.2,   -1.7,   -1.5,   -1.5,   -1.5,   -1.4,   -1.5,   -1.5,   -1.6,   -1.6,   -1.6,   -1.6,   -1.8,   -2.0,   -2.1,   -2.2
2001/03/11 16:10,   -5.0,   -5.0,   -4.9,   -4.9,   -4.9,   -4.9,   -4.9,   -4.9,   -4.8,   -4.7,   -4.7,   -4.7,   -4.7,   -4.6,   -4.5,   -4.4,   -4.3,   -4.3,   -4.6,   -4.6,   -4.5,   -4.4,   -4.6,   -4.5,   -5.2,   -4.7,   -5.4,   -5.5,   -5.6,   -5.6,   -5.8,   -5.9,   -5.9,   -5.9,   -5.9,   -5.9,   -5.9,   -6.0,   -6.1,   -6.2,   -4.4,   -2.5,   -1.8,   -1.4,   -1.3,   -1.4,   -1.4,   -1.4,   -1.5,   -1.5,   -1.5,   -1.5,   -1.4,   -1.4,   -1.4,   -1.4,   -1.5,   -1.6
2001/03/11 16:20,   -4.1,   -4.1,   -4.1,   -3.2,   -2.5,   -2.4,   -2.2,   -1.5,   -1.5,   -1.4,   -2.0,   -2.1,   -2.6,   -2.6,   -2.6,   -2.5,   -2.6,   -2.6,   -2.5,   -2.5,   -2.4,   -2.4,   -2.4,   -2.4,   -2.4,   -2.4,   -1.8,   -2.4,   -2.3,   -2.4,   -2.4,   -2.3,   -2.3,   -2.3,   -3.2,   -2.4,   -2.3,   -3.2,   -2.4,   -2.4,   -4.8,   -2.4,   -1.7,   -1.4,   -1.5,   -1.5,   -1.5,   -1.6,   -1.7,   -1.9,   -2.0,   -2.0,   -2.0,   -2.0,   -1.9,   -1.9,   -2.0,   -2.0
2001/03/11 16:30,   -1.8,   -1.8,   -1.8,   -1.8,   -1.8,   -1.7,   -1.7,   -1.6,   -1.5,   -1.4,   -1.4,   -1.4,   -1.4,   -1.4,   -1.3,   -1.2,   -1.2,   -1.1,   -1.1,   -1.1,   -1.1,   -1.1,   -1.1,   -1.1,   -1.2,   -1.2,   -1.2,   -1.2,   -1.3,   -1.3,   -1.3,   -1.3,   -1.3,   -1.3,   -1.2,   -1.3,   -1.2,   -1.2,   -1.1,   -1.1,  999.0,   -2.1,   -1.4,   -1.2,   -1.2,   -1.3,   -1.4,   -1.5,   -1.6,   -1.7,   -1.8,   -1.8,   -1.8,   -1.9,   -1.8,   -1.9,   -2.0,   -2.1
2001/03/11 16:40,   -2.1,   -2.0,   -2.1,   -2.0,   -2.0,   -2.0,   -1.9,   -1.8,   -1.7,   -1.7,   -1.7,   -1.7,   -1.8,   -1.7,   -1.6,   -1.6,   -1.6,   -1.6,   -1.5,   -1.6,   -1.5,   -1.5,   -1.6,   -1.6,   -1.6,   -1.5,   -1.6,   -1.6,   -1.7,   -1.7,   -1.7,   -1.7,   -1.7,   -1.7,   -1.8,   -1.8,   -1.7,   -1.7,   -2.0,   -1.7,   -1.4,   -2.1,   -1.6,   -1.4,   -1.5,   -1.6,   -1.7,   -1.8,   -1.8,   -1.9,   -1.9,   -2.0,   -2.0,   -2.0,   -2.0,   -2.1,   -2.1,   -2.2
2001/03/11 16:50,   -1.7,   -1.7,   -1.7,   -1.7,   -1.8,   -1.6,   -1.5,   -1.4,   -1.4,   -1.4,   -1.5,   -1.6,   -1.6,   -1.5,   -1.4,   -1.3,   -1.3,   -1.2,   -1.2,   -1.2,   -1.3,   -1.3,   -1.3,   -1.3,   -1.3,   -1.3,   -1.4,   -1.4,   -1.4,   -1.5,   -1.6,   -1.6,   -1.7,   -1.7,   -1.8,   -1.8,   -1.8,   -1.9,   -1.6,   -1.5,   -3.8,   -2.3,   -1.5,   -1.2,   -1.2,   -1.3,   -1.3,   -1.4,   -1.4,   -1.5,   -1.5,   -1.6,   -1.6,   -1.6,   -1.7,   -1.7,   -1.8,   -1.8
2001/03/11 17:00,   -1.4,   -1.7,   -1.5,   -1.5,   -1.4,   -1.0,   -1.2,   -1.5,   -1.3,   -1.3,   -1.4,   -1.4,   -1.4,   -1.4,   -1.3,   -1.3,   -1.2,   -1.2,   -1.1,   -1.1,   -1.2,   -1.2,   -1.2,   -1.2,   -1.2,   -1.2,   -1.3,   -1.3,   -1.3,   -1.3,   -1.3,   -1.3,   -1.3,   -1.3,   -1.4,   -1.3,   -1.3,   -1.1,   -1.2,   -1.1,   -1.2,   -2.1,   -1.4,   -1.0,   -1.1,   -1.2,   -1.2,   -1.2,   -1.3,   -1.4,   -1.5,   -1.6,   -1.6,   -1.7,   -1.7,   -1.7,   -1.8,   -1.8
2001/03/11 17:10,   -1.3,   -1.5,   -1.2,   -1.2,   -1.1,   -0.7,   -1.1,   -1.3,   -1.3,   -1.4,   -1.4,   -1.4,   -1.4,   -1.4,   -1.3,   -1.3,   -1.3,   -1.2,   -1.2,   -1.2,   -1.3,   -1.3,   -1.3,   -1.3,   -1.3,   -1.3,   -1.3,   -1.2,   -1.2,   -1.2,   -1.2,   -1.2,   -1.1,   -1.2,   -1.1,   -1.1,   -1.1,   -1.1,   -1.1,   -1.2,   -1.0,  999.0,   -1.9,   -1.2,   -1.0,  999.0,   -0.8,   -0.9,   -0.9,   -0.9,   -1.0,   -1.1,   -1.2,   -1.4,   -1.5,   -1.5,   -1.5,   -1.6
2001/03/11 17:20,  999.0,   -1.7,   -1.6,   -1.6,   -1.5,   -1.7,   -1.5,   -1.2,   -1.3,   -1.0,   -1.4,   -1.7,   -1.6,   -1.2,   -1.4,   -1.3,   -1.4,   -1.4,   -1.4,   -1.4,   -1.5,   -1.5,   -1.4,   -1.4,   -1.4,   -1.4,   -1.4,   -1.4,   -1.4,   -1.4,   -1.4,   -1.4,   -1.3,   -1.4,   -1.2,   -1.1,   -1.1,   -1.1,   -1.0,   -1.0,   -1.2,  999.0,  999.0,   -0.5,  999.0,   -0.1,  999.0,  999.0,   -0.9,   -0.9,   -0.9,   -1.1,   -1.1,   -1.2,   -1.3,   -1.4,   -1.6,   -1.7
2001/03/11 17:30,   -1.3,   -1.5,   -1.5,   -1.5,   -1.5,   -1.0,   -0.4,   -0.6,   -0.9,   -0.6,   -0.9,   -1.2,   -1.7,   -1.6,   -1.6,   -1.6,   -1.4,   -1.6,   -1.7,   -1.7,   -1.7,   -1.7,   -1.6,   -1.6,   -1.5,   -1.5,   -1.4,   -1.4,   -1.3,   -1.3,   -1.3,   -1.2,   -1.2,   -1.1,   -1.1,   -1.1,   -1.2,  999.0,  999.0,  999.0,  999.0,  999.0,   -2.0,   -1.3,   -0.7,   -1.2,   -1.3,   -1.3,   -1.3,   -1.4,   -1.4,   -1.3,   -1.3,   -1.3,   -1.4,   -1.5,   -1.7,   -1.9
2001/03/11 17:40,   -0.9,   -1.8,   -1.7,   -1.7,   -1.6,   -1.6,   -1.5,   -1.5,   -1.0,   -0.2,    0.3,    0.3,   -0.8,   -1.6,   -1.6,   -1.6,   -1.7,   -1.6,   -1.6,   -1.5,   -1.5,   -1.3,   -1.3,   -1.2,   -1.1,   -1.1,   -1.1,   -1.0,   -1.0,   -1.1,   -1.2,   -1.0,   -1.0,   -1.0,   -1.1,  999.0,  999.0,  999.0,  999.0,   -0.9,  999.0,  999.0,   -2.3,   -1.4,   -0.9,   -0.8,   -0.9,   -1.1,   -1.3,   -1.4,   -1.4,   -1.4,   -1.5,   -1.5,   -1.4,   -1.5,   -1.6,   -1.7
2001/03/11 17:50,   -1.0,   -1.6,   -1.7,   -1.8,   -1.7,   -1.4,   -1.6,   -1.6,   -1.5,   -1.7,   -1.1,   -0.8,   -0.7,   -1.0,   -1.3,   -1.6,   -1.4,   -1.4,   -1.3,   -1.3,   -1.3,   -1.2,   -1.1,   -1.1,   -1.0,   -0.9,   -0.9,   -1.0,   -0.6,  999.0,  999.0,  999.0,   -0.7,   -1.0,  999.0,  999.0,  999.0,  999.0,   -0.8,  999.0,  999.0,  999.0,   -2.5,   -1.8,   -1.1,  999.0,   -0.5,   -1.4,   -1.2,   -1.0,   -1.2,   -1.2,   -1.2,   -1.3,   -1.3,   -1.3,   -1.5,   -1.6
2001/03/11 18:00,  999.0,   -0.8,   -1.3,   -1.4,   -0.6,   -0.7,   -1.0,   -1.1,   -1.3,   -1.2,   -1.0,   -1.2,   -1.3,   -1.2,   -0.8,   -0.9,   -1.0,   -0.9,   -0.8,   -0.6,   -0.7,   -0.7,   -1.0,   -0.8,   -0.6,   -0.6,   -0.0,   -0.6,   -0.7,   -1.2,   -0.5,   -1.2,   -0.9,  999.0,  999.0,  999.0,   -0.9,  999.0,  999.0,  999.0,  999.0,   -1.3,  999.0,  999.0,  999.0,   -0.9,   -1.0,   -1.0,   -1.5,   -1.4,   -1.3,   -1.2,   -1.1,   -1.1,   -1.2,   -1.2,   -1.3,   -1.3
2001/03/11 18:10,   -5.7,   -4.1,   -3.4,   -3.7,   -3.8,   -2.9,   -3.7,   -3.9,   -3.8,   -2.9,   -2.7,   -1.7,   -0.4,   -0.8,   -0.7,   -0.2,    0.1,    0.3,    1.1,    0.1,   -0.0,   -0.0,   -0.2,    0.1,    0.1,   -0.0,    0.0,   -0.3,  999.0,   -0.7,  999.0,   -0.8,   -1.0,   -0.8,  999.0,  999.0,  999.0,  999.0,  999.0,   -1.2,  999.0,   -3.0,   -1.7,   -1.4,  999.0,   -0.9,   -1.2,   -0.9,   -1.1,   -0.9,  999.0,   -0.7,   -1.0,  999.0,  999.0,  999.0,  999.0,  999.0
2001/03/11 18:20,  999.0,    0.6,    0.8,   -0.0,   -0.3,   -0.2,   -0.1,   -0.2,   -0.2,   -0.0,    0.3,    0.1,    0.0,    0.1,    0.2,    0.2,    0.3,    0.1,   -0.7,   -0.8,   -1.0,   -0.7,   -0.2,   -0.3,   -0.5,   -0.5,   -0.8,   -1.0,   -0.6,   -0.8,   -0.8,   -2.1,   -0.8,   -1.9,   -2.2,  999.0,  999.0,  999.0,  999.0,  999.0,  999.0,  999.0,   -0.2,  999.0,  999.0,  999.0,  999.0,  999.0,  999.0,  999.0,  999.0,  999.0,  999.0,  999.0,  999.0,  999.0,  999.0,  999.0
2001/03/11 18:30,  999.0,  999.0,  999.0,    0.1,    0.1,   -0.2,   -0.4,   -0.7,   -0.1,   -0.1,   -0.2,   -0.4,   -0.8,   -0.5,   -0.4,   -0.2,   -0.4,   -0.6,   -0.1,   -0.8,   -2.0,   -0.7,   -1.0,   -0.9,   -1.6,   -1.6,   -0.9,   -0.9,   -0.9,   -0.8,   -0.7,   -1.3,   -0.4,   -1.3,   -0.1,   -0.4,   -1.4,   -1.1,   -0.9,   -1.0,   -0.5,   -0.2,   -0.3,    0.2,    0.3,  999.0,  999.0,  999.0,  999.0,  999.0,  999.0,  999.0,  999.0,  999.0,  999.0,  999.0,  999.0,  999.0
2001/03/11 18:40,   -2.5,   -3.1,   -4.5,   -6.0,   -3.6,   -4.6,   -4.9,   -4.8,   -4.9,   -4.2,   -4.3,   -4.4,   -4.2,   -4.2,   -4.2,   -3.7,   -4.7,   -4.3,   -4.3,   -4.3,   -3.7,   -3.1,   -3.5,   -3.7,   -3.8,   -5.2,   -5.0,   -6.4,   -5.3,   -5.0,   -5.0,   -3.2,   -4.4,   -4.6,   -4.1,   -3.8,   -3.5,   -3.3,   -3.0,   -2.8,   -2.4,   -3.3,   -3.6,   -1.7,   -1.2,   -1.2,    0.8,  999.0,  999.0,  999.0,  999.0,  999.0,  999.0,  999.0,   -2.3,  999.0,  999.0,  999.0
2001/03/11 18:50,   -6.1,   -7.2,   -7.0,   -7.1,   -7.1,   -7.0,   -6.9,   -7.0,   -7.1,   -7.4,   -7.7,   -8.2,   -8.4,   -8.4,   -8.4,   -8.2,   -8.2,   -8.4,   -7.8,   -7.4,   -8.1,   -8.0,   -7.9,   -7.9,   -8.1,   -8.1,   -8.0,   -7.7,   -7.3,   -6.8,   -6.3,   -5.9,   -5.9,   -5.5,   -5.5,   -5.6,   -5.1,   -4.5,   -3.8,   -3.8,   -4.1,   -3.9,   -3.5,   -3.6,   -3.7,   -3.3,   -2.9,   -2.1,   -1.9,   -0.9,   -1.0,  999.0,    0.3,  999.0,  999.0,   -2.1,   -1.4,   -1.5
2001/03/11 19:00,   -8.1,   -8.1,   -8.2,   -8.3,   -8.2,   -8.1,   -7.9,   -7.7,   -7.5,   -7.6,   -7.6,   -7.5,   -7.8,   -7.9,   -8.1,   -8.1,   -8.3,   -8.5,   -8.5,   -8.4,   -8.1,   -7.8,   -7.9,   -8.0,   -8.0,   -8.6,   -8.7,   -8.5,   -8.5,   -8.6,   -8.6,   -8.1,   -7.8,   -7.2,   -6.2,   -5.9,   -5.4,   -4.9,   -4.4,   -4.1,   -3.9,   -3.5,   -3.4,   -3.1,   -3.0,   -3.0,   -2.8,   -2.6,   -2.8,   -2.8,   -2.6,   -2.4,  999.0,  999.0,  999.0,  999.0,  999.0,   -1.5
2001/03/11 19:10,   -7.8,   -7.7,   -7.9,   -7.9,   -7.8,   -7.7,   -7.5,   -7.5,   -7.4,   -7.4,   -7.2,   -7.1,   -7.1,   -7.0,   -6.9,   -6.9,   -7.1,   -7.1,   -7.0,   -7.1,   -7.2,   -7.5,   -7.5,   -7.4,   -7.2,   -7.0,   -6.8,   -6.7,   -6.6,   -6.4,   -6.4,   -6.3,   -6.2,   -5.9,   -5.6,   -5.4,   -5.2,   -5.0,   -4.8,   -4.3,   -3.7,   -3.7,   -3.5,   -2.9,   -2.7,   -3.0,   -2.8,  999.0,  999.0,  999.0,  999.0,  999.0,  999.0,  999.0,  999.0,  999.0,   -1.6,  999.0
2001/03/11 19:20,   -6.2,   -5.7,   -6.3,   -5.2,   -6.0,   -5.8,   -5.7,   -5.4,   -5.1,   -5.0,   -5.0,   -5.0,   -4.8,   -4.8,   -4.6,   -4.5,   -4.5,   -4.5,   -4.5,   -4.5,   -4.6,   -4.4,   -4.4,   -4.4,   -4.0,   -3.8,   -3.9,   -4.1,   -4.0,   -3.4,   -3.7,   -3.5,   -3.2,   -3.0,   -3.5,   -3.1,   -5.4,   -3.2,   -3.1,  999.0,   -5.1,   -5.2,   -4.6,  999.0,   -2.7,  999.0,  999.0,  999.0,  999.0,  999.0,  999.0,  999.0,  999.0,  999.0,  999.0,  999.0,  999.0,  999.0
2001/03/11 19:30,   -3.5,   -3.8,   -3.9,   -4.4,   -4.3,   -3.3,   -3.5,   -3.3,   -2.9,   -2.9,   -3.3,   -3.3,   -2.9,   -2.9,   -2.9,  999.0,   -2.4,   -3.1,   -3.0,   -3.0,  999.0,   -4.0,  999.0,   -2.6,  999.0,  999.0,  999.0,  999.0,  999.0,  999.0,  999.0,  999.0,  999.0,  999.0,   -5.6,   -5.4,  999.0,  999.0,  999.0,  999.0,  999.0,  999.0,   -5.5,   -5.4,   -5.4,  999.0,  999.0,   -5.6,  999.0,  999.0,   -5.5,  999.0,  999.0,  999.0,   -5.4,  999.0,  999.0,  999.0
2001/03/11 19:40,   -0.6,   -1.4,   -0.8,    0.3,    0.7,    0.4,   -0.9,   -0.9,   -0.8,   -0.6,    0.0,   -0.4,  999.0,  999.0,  999.0,  999.0,  999.0,  999.0,  999.0,  999.0,  999.0,  999.0,  999.0,  999.0,  999.0,  999.0,  999.0,  999.0,  999.0,  999.0,   -1.0,  999.0,   -0.1,  999.0,  999.0,   -5.5,  999.0,  999.0,   -5.5,  999.0,  999.0,   -5.3,  999.0,  999.0,   -5.6,   -5.5,  999.0,  999.0,  999.0,   -5.6,   -5.7,  999.0,  999.0,  999.0,  999.0,  999.0,  999.0,  999.0
2001/03/11 19:50,   -0.1,    0.3,    0.4,    1.0,    0.4,    1.0,    0.5,    0.6,    1.0,    0.3,   -0.1,    1.2,    0.9,    0.3,    0.1,    0.0,  999.0,    0.0,  999.0,  999.0,  999.0,    0.1,  999.0,  999.0,  999.0,  999.0,  999.0,  999.0,  999.0,  999.0,  999.0,  999.0,  999.0,  999.0,  999.0,  999.0,  999.0,  999.0,  999.0,  999.0,  999.0,  999.0,  999.0,  999.0,  999.0,  999.0,  999.0,  999.0,  999.0,  999.0,  999.0,  999.0,  999.0,  999.0,  999.0,  999.0,  999.0,  999.0
2001/03/11 20:00,    0.3,    0.3,  999.0,    0.2,    1.0,    0.6,    0.7,    0.1,   -0.0,    0.6,    0.7,    0.3,    0.2,   -0.4,    0.1,    0.0,   -0.0,    0.0,  999.0,  999.0,  999.0,  999.0,  999.0,  999.0,  999.0,  999.0,  999.0,  999.0,  999.0,  999.0,  999.0,   -0.2,  999.0,  999.0,    0.0,  999.0,  999.0,  999.0,  999.0,  999.0,  999.0,  999.0,  999.0,  999.0,  999.0,  999.0,  999.0,  999.0,  999.0,  999.0,  999.0,  999.0,  999.0,  999.0,  999.0,  999.0,  999.0,  999.0
2001/03/11 20:10,    0.1,   -0.3,    0.1,    1.6,    0.6,    0.3,    0.4,    0.1,    0.3,    0.4,    0.5,    1.4,    0.3,   -0.1,    0.0,   -0.1,   -0.2,    0.0,  999.0,  999.0,  999.0,  999.0,  999.0,  999.0,  999.0,  999.0,  999.0,  999.0,  999.0,  999.0,  999.0,  999.0,  999.0,  999.0,  999.0,  999.0,  999.0,  999.0,  999.0,  999.0,  999.0,  999.0,  999.0,  999.0,  999.0,  999.0,  999.0,   -0.1,  999.0,  999.0,  999.0,  999.0,  999.0,  999.0,  999.0,  999.0,  999.0,  999.0
2001/03/11 20:20,   -0.3,   -1.5,   -1.3,   -0.5,   -0.7,   -0.0,    0.7,    0.9,    0.1,   -0.1,    0.6,    0.8,    0.3,   -0.1,   -0.0,    0.0,    0.0,    0.0,  999.0,  999.0,  999.0,    0.0,  999.0,  999.0,  999.0,   -0.2,  999.0,  999.0,  999.0,  999.0,  999.0,  999.0,  999.0,  999.0,  999.0,    0.2,  999.0,  999.0,    0.1,  999.0,  999.0,  999.0,  999.0,  999.0,  999.0,  999.0,  999.0,  999.0,  999.0,  999.0,  999.0,  999.0,  999.0,  999.0,  999.0,  999.0,  999.0,  999.0
2001/03/11 20:30,   -0.1,   -0.2,   -0.1,   -0.1,    0.1,    0.3,   -0.3,   -0.4,    0.4,    0.4,  999.0,  999.0,   -0.1,    0.0,    0.2,    0.1,   -0.3,   -0.1,  999.0,    0.1,  999.0,  999.0,  999.0,  999.0,   -0.1,  999.0,  999.0,  999.0,  999.0,  999.0,  999.0,  999.0,  999.0,  999.0,  999.0,  999.0,  999.0,  999.0,  999.0,  999.0,  999.0,  999.0,  999.0,  999.0,  999.0,  999.0,  999.0,  999.0,  999.0,  999.0,  999.0,  999.0,  999.0,  999.0,  999.0,  999.0,  999.0,  999.0
2001/03/11 20:40,    0.3,   -0.3,   -0.5,    0.4,   -1.7,   -0.2,   -0.1,    0.3,   -0.2,    0.0,    0.2,   -0.2,   -0.2,  999.0,    0.2,    0.0,  999.0,    0.0,  999.0,   -0.5,   -0.5,  999.0,    0.1,    1.3,  999.0,  999.0,  999.0,  999.0,  999.0,  999.0,  999.0,  999.0,  999.0,  999.0,  999.0,  999.0,  999.0,  999.0,  999.0,  999.0,  999.0,  999.0,  999.0,  999.0,  999.0,  999.0,  999.0,  999.0,  999.0,  999.0,  999.0,  999.0,  999.0,  999.0,  999.0,  999.0,  999.0,  999.0
2001/03/11 20:50,   -0.3,   -0.0,    0.2,    0.2,   -0.1,   -0.1,    0.1,    0.5,    0.1,   -0.6,  999.0,   -0.1,    0.1,    0.0,   -0.0,   -0.2,  999.0,    0.0,  999.0,  999.0,  999.0,  999.0,  999.0,  999.0,  999.0,  999.0,  999.0,  999.0,  999.0,  999.0,  999.0,  999.0,  999.0,  999.0,   -0.5,   -0.3,  999.0,  999.0,  999.0,  999.0,  999.0,  999.0,  999.0,  999.0,  999.0,  999.0,  999.0,  999.0,  999.0,  999.0,  999.0,  999.0,  999.0,  999.0,  999.0,  999.0,  999.0,  999.0
2001/03/11 21:00,   -0.5,    0.0,    0.1,    0.1,    0.1,    0.1,   -0.0,   -0.0,  999.0,   -0.1,    0.1,    0.0,    0.0,   -0.0,   -0.0,    0.2,   -0.1,   -0.1,  999.0,  999.0,  999.0,  999.0,  999.0,  999.0,  999.0,    1.0,  999.0,  999.0,  999.0,  999.0,  999.0,   -0.5,  999.0,  999.0,  999.0,  999.0,  999.0,    0.0,  999.0,  999.0,  999.0,  999.0,  999.0,  999.0,  999.0,  999.0,  999.0,  999.0,  999.0,  999.0,  999.0,  999.0,  999.0,  999.0,  999.0,  999.0,  999.0,  999.0
2001/03/11 21:10,    0.1,   -0.3,    0.1,    0.2,   -0.2,   -0.1,   -0.5,   -0.0,    0.0,    0.2,    0.2,    0.1,    0.5,  999.0,    0.1,   -0.1,  999.0,  999.0,  999.0,  999.0,  999.0,  999.0,  999.0,  999.0,  999.0,  999.0,  999.0,  999.0,  999.0,  999.0,  999.0,  999.0,  999.0,  999.0,  999.0,  999.0,  999.0,  999.0,  999.0,  999.0,  999.0,  999.0,  999.0,  999.0,  999.0,  999.0,  999.0,  999.0,  999.0,  999.0,  999.0,  999.0,  999.0,  999.0,  999.0,  999.0,  999.0,  999.0
2001/03/11 21:20,   -0.1,   -0.6,   -0.5,    0.1,    0.0,    0.6,    0.4,   -0.1,    0.0,   -0.1,   -0.8,   -0.1,    0.2,  999.0,    0.1,    0.1,   -0.0,   -0.0,  999.0,  999.0,  999.0,   -0.0,  999.0,  999.0,  999.0,  999.0,  999.0,  999.0,  999.0,    0.5,  999.0,  999.0,  999.0,  999.0,  999.0,  999.0,  999.0,  999.0,  999.0,  999.0,  999.0,  999.0,  999.0,  999.0,  999.0,  999.0,  999.0,  999.0,  999.0,  999.0,  999.0,  999.0,  999.0,  999.0,  999.0,  999.0,  999.0,  999.0
2001/03/11 21:30,   -0.1,   -0.2,   -0.1,   -0.0,    0.1,   -0.5,    0.2,   -0.2,   -0.1,   -0.0,    0.3,    0.3,   -0.0,    0.1,    0.0,    0.1,   -0.0,    0.0,  999.0,  999.0,  999.0,  999.0,  999.0,   -0.3,    5.5,  999.0,  999.0,  999.0,  999.0,    5.5,  999.0,  999.0,  999.0,    5.5,  999.0,    5.5,  999.0,  999.0,  999.0,  999.0,  999.0,    5.4,  999.0,  999.0,  999.0,    5.5,  999.0,  999.0,  999.0,  999.0,  999.0,  999.0,  999.0,  999.0,  999.0,  999.0,  999.0,  999.0
2001/03/11 21:40,   -0.2,   -0.3,    0.2,    0.4,    0.2,    0.1,    0.0,   -0.4,    0.3,   -0.1,    0.1,    0.3,    0.2,   -0.2,    0.1,    0.0,  999.0,    0.0,  999.0,  999.0,  999.0,  999.0,  999.0,  999.0,  999.0,  999.0,  999.0,  999.0,  999.0,  999.0,  999.0,  999.0,  999.0,  999.0,  999.0,  999.0,  999.0,  999.0,  999.0,  999.0,  999.0,  999.0,  999.0,  999.0,  999.0,  999.0,  999.0,  999.0,  999.0,  999.0,  999.0,  999.0,  999.0,  999.0,  999.0,  999.0,  999.0,  999.0
2001/03/11 21:50,    0.1,   -0.1,    0.3,   -0.4,    0.6,   -0.1,    0.0,    0.1,    0.6,    0.2,    0.4,    0.2,   -0.2,   -0.2,   -0.2,   -0.2,   -0.1,    0.1,  999.0,  999.0,  999.0,    0.1,  999.0,  999.0,  999.0,   -1.0,  999.0,  999.0,  999.0,  999.0,  999.0,    0.1,  999.0,  999.0,  999.0,  999.0,  999.0,  999.0,  999.0,  999.0,  999.0,  999.0,  999.0,  999.0,  999.0,  999.0,  999.0,  999.0,  999.0,  999.0,  999.0,  999.0,  999.0,  999.0,  999.0,  999.0,  999.0,  999.0
2001/03/11 22:00,    0.6,    1.0,    0.2,   -0.5,   -0.3,   -0.1,    0.3,    0.1,    0.5,    0.5,    0.4,   -0.1,    0.3,    0.7,   -0.0,   -0.7,   -0.1,    0.0,  999.0,  999.0,  999.0,  999.0,  999.0,  999.0,  999.0,  999.0,  999.0,   -0.5,  999.0,  999.0,  999.0,    0.4,  999.0,  999.0,  999.0,  999.0,  999.0,  999.0,  999.0,  999.0,  999.0,  999.0,  999.0,  999.0,  999.0,  999.0,  999.0,  999.0,  999.0,  999.0,  999.0,  999.0,  999.0,  999.0,  999.0,  999.0,  999.0,  999.0
2001/03/11 22:10,   -0.1,    0.1,    0.3,    0.2,    0.5,    0.3,   -0.1,   -0.2,    0.1,    0.6,   -0.1,    0.0,    0.2,    0.0,    0.1,  999.0,  999.0,   -0.1,  999.0,  999.0,  999.0,  999.0,  999.0,  999.0,  999.0,  999.0,  999.0,  999.0,   -0.0,  999.0,  999.0,  999.0,  999.0,  999.0,  999.0,  999.0,  999.0,  999.0,  999.0,  999.0,   -0.1,  999.0,  999.0,  999.0,  999.0,  999.0,    0.3,  999.0,  999.0,  999.0,  999.0,  999.0,  999.0,  999.0,  999.0,  999.0,  999.0,  999.0
2001/03/11 22:20,    0.0,   -0.5,   -0.3,   -0.5,    0.1,    0.3,   -0.1,   -0.1,   -0.1,   -0.1,    0.1,    0.1,    0.1,    0.0,    0.1,   -0.0,  999.0,  999.0,  999.0,  999.0,  999.0,  999.0,  999.0,  999.0,  999.0,  999.0,  999.0,  999.0,  999.0,  999.0,  999.0,  999.0,  999.0,  999.0,  999.0,  999.0,  999.0,  999.0,  999.0,  999.0,  999.0,  999.0,  999.0,  999.0,  999.0,  999.0,  999.0,  999.0,  999.0,  999.0,  999.0,  999.0,  999.0,  999.0,  999.0,  999.0,  999.0,  999.0
2001/03/11 22:30,   -0.1,    0.7,    1.2,    0.8,    0.2,   -0.0,    0.6,    0.2,   -0.0,   -0.1,    0.1,    0.0,    0.0,    0.1,    0.0,   -0.0,   -0.1,    0.1,    0.1,  999.0,  999.0,  999.0,   -0.1,  999.0,  999.0,  999.0,  999.0,  999.0,  999.0,  999.0,  999.0,  999.0,   -0.0,  999.0,  999.0,  999.0,  999.0,   -0.1,  999.0,  999.0,  999.0,   -0.1,   -0.2,   -0.2,  999.0,  999.0,  999.0,   -0.2,  999.0,   -0.2,  999.0,  999.0,  999.0,   -0.2,  999.0,  999.0,  999.0,  999.0
2001/03/11 22:40,    0.0,    0.3,   -0.3,   -0.0,   -0.1,   -0.1,   -0.3,   -0.3,    0.0,    0.1,    0.2,    0.0,    0.4,   -0.0,   -0.0,  999.0,   -0.0,    0.1,  999.0,   -0.1,    0.0,   -0.1,  999.0,  999.0,  999.0,  999.0,  999.0,  999.0,  999.0,  999.0,  999.0,  999.0,   -0.0,  999.0,  999.0,  999.0,  999.0,  999.0,  999.0,  999.0,  999.0,  999.0,  999.0,  999.0,  999.0,  999.0,  999.0,  999.0,  999.0,  999.0,  999.0,  999.0,  999.0,  999.0,  999.0,  999.0,  999.0,  999.0
2001/03/11 22:50,  999.0,   -0.7,   -0.9,   -0.2,   -0.5,   -0.1,    0.2,    0.3,    0.2,    0.2,    0.3,    0.0,    0.0,   -0.2,   -0.0,    0.3,    0.1,   -0.0,  999.0,   -0.0,   -0.1,    0.1,  999.0,  999.0,  999.0,  999.0,  999.0,  999.0,  999.0,  999.0,  999.0,  999.0,  999.0,  999.0,  999.0,  999.0,  999.0,  999.0,  999.0,  999.0,  999.0,  999.0,  999.0,  999.0,  999.0,  999.0,  999.0,  999.0,  999.0,  999.0,  999.0,  999.0,  999.0,  999.0,  999.0,  999.0,  999.0,  999.0
2001/03/11 23:00,   -4.1,   -3.1,   -2.8,   -2.8,   -2.1,   -4.6,   -2.1,   -3.5,   -2.9,   -2.9,   -2.6,   -2.5,   -1.7,   -1.2,    0.1,    0.2,    0.6,  999.0,  999.0,   -1.9,   -2.0,   -2.4,   -2.8,  999.0,   -4.1,   -3.3,   -3.2,   -3.2,   -4.7,   -8.5,   -9.0,   -9.2,   -9.5,  999.0,  999.0,  999.0,   -5.3,   -5.0,   -2.5,   -3.8,   -3.3,   -4.1,   -3.6,  999.0,  999.0,  999.0,  999.0,  999.0,  999.0,  999.0,  999.0,  999.0,  999.0,  999.0,  999.0,  999.0,  999.0,  999.0
2001/03/11 23:10,   -7.5,   -7.6,   -7.4,   -7.2,   -7.3,   -7.3,   -6.9,   -6.3,   -6.3,   -6.1,   -5.5,   -5.3,   -5.0,   -7.3,   -7.8,   -7.9,   -8.1,   -6.6,   -7.5,   -7.5,   -8.2,   -8.1,   -8.0,   -8.0,   -7.9,   -7.9,   -7.9,   -7.9,   -7.8,   -7.7,   -7.7,   -7.7,   -7.7,   -7.7,   -7.5,   -7.0,   -6.7,   -6.6,   -6.3,   -6.7,   -6.3,   -6.3,   -5.9,   -5.0,   -4.6,   -5.7,   -5.6,   -5.7,   -5.7,   -3.3,   -5.6,   -5.6,   -5.7,   -5.7,  999.0,  999.0,   -5.5,   -5.6
2001/03/11 23:20,   -5.9,   -5.8,   -5.2,   -5.0,   -4.8,   -4.5,   -4.3,   -4.2,   -4.1,   -4.4,   -4.2,   -3.5,   -4.6,   -4.8,   -4.8,   -4.8,   -4.7,   -4.4,   -5.1,   -4.7,   -4.9,   -5.0,   -5.0,   -4.8,   -4.6,   -4.6,   -4.6,   -4.5,   -4.4,   -4.3,   -3.9,   -3.7,   -3.4,   -3.9,   -4.1,   -4.0,   -3.6,   -4.4,  999.0,  999.0,  999.0,   -5.6,   -5.7,   -5.5,  999.0,  999.0,   -5.5,  999.0,   -5.6,   -5.5,  999.0,   -5.4,   -5.4,  999.0,  999.0,  999.0,  999.0,   -5.6
2001/03/11 23:30,   -5.1,   -5.1,   -5.0,   -4.8,   -4.6,   -4.4,   -4.1,   -3.9,   -3.6,   -3.4,   -3.4,   -2.9,   -3.0,   -3.8,   -3.9,   -4.2,   -4.7,   -4.9,   -4.8,   -4.6,   -4.4,   -4.4,   -4.2,   -3.9,   -3.8,   -3.7,   -3.6,   -3.6,   -3.8,   -3.6,   -3.8,   -3.9,   -3.9,  999.0,  999.0,  999.0,   -5.7,  999.0,  999.0,  999.0,  999.0,  999.0,   -5.4,  999.0,  999.0,   -5.5,   -5.6,  999.0,  999.0,  999.0,  999.0,  999.0,  999.0,  999.0,  999.0,  999.0,   -5.6,   -5.6
2001/03/11 23:40,   -3.2,   -2.7,   -2.3,   -2.5,   -2.5,   -2.0,   -2.9,   -2.4,   -2.4,   -2.8,   -2.1,   -2.5,   -2.2,  999.0,   -1.6,   -3.2,   -3.5,   -3.5,   -3.5,   -2.9,  999.0,  999.0,   -2.6,   -2.3,  999.0,  999.0,  999.0,  999.0,  999.0,  999.0,  999.0,   -5.3,  999.0,   -6.1,   -5.6,   -5.5,  999.0,  999.0,  999.0,   -5.5,   -2.7,  999.0,   -2.8,   -2.2,   -1.9,   -1.5,   -1.5,   -1.7,   -1.5,   -1.1,   -1.4,   -0.3,  999.0,  999.0,  999.0,  999.0,  999.0,  999.0
2001/03/11 23:50,  999.0,   -0.8,   -0.5,   -0.9,   -1.5,   -0.5,   -1.1,    0.1,   -1.7,   -1.9,   -5.5,   -5.5,   -3.6,   -5.3,   -1.8,   -5.4,   -5.4,   -2.9,  999.0,   -4.3,   -5.7,   -5.6,   -5.5,   -5.6,   -5.4,   -5.8,   -5.7,   -5.7,   -5.6,   -5.4,   -5.4,   -4.6,   -5.1,   -4.7,   -4.9,   -4.5,   -4.4,   -4.5,   -4.3,   -4.3,   -4.1,   -3.4,   -2.6,   -2.3,   -2.0,   -2.1,   -1.8,   -1.6,   -1.4,   -1.0,   -1.7,   -1.7,   -1.8,   -2.2,   -1.9,   -1.8,   -1.4,   -1.2
